GFSGBSN_prec_precacc24_192.txt.gz
Total_Precipitation_Accumulation
0.21 0.24 0.29 0.30 0.24 0.15 0.09 0.05 0.02 0.00 0.00 0.00 0.00 0.00 0.00 0.01 0.01 0.01 0.00 0.00 0.00 0.00 0.00 0.00 0.00 0.00 0.00 0.00 0.00 0.00 0.00 0.00 0.00 0.00 0.00 0.00 0.00 0.00 0.00 0.00 0.00 0.00 0.00 0.00 0.00 0.00 0.00
0.38 0.29 0.31 0.40 0.47 0.39 0.25 0.18 0.12 0.05 0.01 0.00 0.00 0.00 0.00 0.00 0.00 0.00 0.00 0.00 0.00 0.00 0.00 0.00 0.00 0.00 0.00 0.00 0.00 0.00 0.00 0.00 0.00 0.00 0.00 0.00 0.00 0.00 0.00 0.00 0.00 0.00 0.00 0.00 0.00 0.00 0.00
0.46 0.44 0.34 0.28 0.31 0.39 0.40 0.26 0.18 0.14 0.06 0.01 0.00 0.00 0.00 0.00 0.00 0.00 0.00 0.00 0.00 0.00 0.00 0.00 0.00 0.00 0.02 0.00 0.00 0.00 0.00 0.00 0.00 0.00 0.00 0.00 0.00 0.00 0.00 0.00 0.00 0.00 0.00 0.00 0.00 0.00 0.00
0.53 0.50 0.51 0.47 0.37 0.35 0.43 0.45 0.29 0.16 0.07 0.02 0.00 0.00 0.00 0.00 0.00 0.00 0.00 0.00 0.00 0.00 0.00 0.00 0.00 0.00 0.00 0.00 0.00 0.00 0.00 0.00 0.00 0.00 0.00 0.00 0.00 0.00 0.00 0.00 0.00 0.00 0.00 0.00 0.00 0.00 0.00
0.57 0.55 0.57 0.58 0.61 0.54 0.49 0.48 0.48 0.32 0.18 0.11 0.05 0.00 0.00 0.00 0.00 0.00 0.00 0.00 0.00 0.00 0.00 0.00 0.00 0.00 0.00 0.00 0.00 0.00 0.00 0.00 0.00 0.00 0.00 0.00 0.00 0.00 0.00 0.00 0.00 0.00 0.00 0.00 0.00 0.00 0.00
0.72 0.60 0.52 0.49 0.46 0.45 0.46 0.49 0.51 0.46 0.33 0.14 0.09 0.05 0.00 0.00 0.00 0.00 0.00 0.00 0.00 0.00 0.00 0.00 0.00 0.00 0.00 0.00 0.00 0.00 0.00 0.00 0.00 0.00 0.00 0.00 0.00 0.00 0.00 0.00 0.00 0.00 0.00 0.00 0.00 0.00 0.00
1.28 1.19 1.02 0.90 0.77 0.59 0.46 0.40 0.43 0.51 0.55 0.47 0.20 0.12 0.05 0.01 0.00 0.00 0.01 0.01 0.00 0.00 0.00 0.00 0.00 0.00 0.00 0.00 0.00 0.00 0.00 0.00 0.00 0.00 0.00 0.00 0.00 0.00 0.00 0.00 0.00 0.00 0.00 0.00 0.00 0.00 0.00
1.28 1.23 1.22 1.15 1.05 0.97 0.86 0.67 0.47 0.44 0.44 0.54 0.60 0.41 0.18 0.08 0.01 0.00 0.00 0.00 0.00 0.00 0.00 0.00 0.00 0.00 0.00 0.00 0.00 0.00 0.00 0.00 0.00 0.00 0.00 0.00 0.00 0.00 0.00 0.00 0.00 0.00 0.00 0.00 0.00 0.00 0.00
1.15 1.25 1.24 1.22 1.20 1.09 0.99 0.88 0.76 0.59 0.47 0.44 0.45 0.59 0.58 0.30 0.10 0.03 0.00 0.00 0.00 0.00 0.00 0.00 0.00 0.00 0.00 0.00 0.00 0.00 0.00 0.00 0.00 0.00 0.00 0.00 0.00 0.00 0.00 0.00 0.00 0.00 0.00 0.00 0.00 0.00 0.00
1.11 1.09 1.12 1.16 1.22 1.23 1.22 1.17 0.90 0.71 0.62 0.60 0.55 0.59 0.79 0.94 0.77 0.13 0.02 0.00 0.00 0.01 0.17 0.12 0.00 0.00 0.00 0.00 0.00 0.00 0.00 0.00 0.00 0.00 0.01 0.00 0.00 0.00 0.00 0.00 0.01 0.01 0.00 0.00 0.00 0.03 0.01
1.01 1.05 1.00 0.95 1.01 1.11 1.18 1.22 1.20 1.04 0.84 0.75 0.77 0.95 1.16 1.10 0.69 0.23 0.04 0.01 0.03 0.15 0.81 0.31 0.01 0.00 0.00 0.00 0.00 0.00 0.00 0.00 0.00 0.00 0.01 0.00 0.00 0.00 0.00 0.00 0.00 0.00 0.00 0.00 0.02 0.05 0.04
0.80 0.95 1.04 1.03 0.97 0.93 0.99 1.09 1.15 1.15 1.16 1.05 1.01 1.18 1.45 1.30 0.84 0.28 0.04 0.10 0.39 1.00 1.60 0.36 0.00 0.00 0.00 0.00 0.00 0.00 0.00 0.00 0.00 0.00 0.00 0.00 0.00 0.00 0.00 0.00 0.00 0.00 0.00 0.01 0.03 0.06 0.14
1.35 1.02 0.88 0.96 1.05 1.09 1.00 0.94 0.95 1.11 1.19 1.26 1.39 1.43 1.50 1.05 1.09 0.51 0.40 0.58 1.28 1.94 0.91 0.14 0.00 0.00 0.00 0.00 0.00 0.00 0.00 0.00 0.00 0.00 0.00 0.00 0.00 0.00 0.00 0.00 0.00 0.00 0.01 0.05 0.05 0.03 0.04
1.14 1.24 1.14 0.93 0.84 0.92 1.01 1.05 1.02 0.98 1.05 1.25 1.60 1.80 1.75 1.37 0.94 0.64 0.51 0.94 2.30 1.45 0.36 0.01 0.00 0.00 0.00 0.00 0.00 0.00 0.00 0.00 0.00 0.00 0.01 0.01 0.00 0.00 0.00 0.00 0.00 0.00 0.02 0.06 0.04 0.00 0.00
0.98 0.99 1.09 1.05 0.86 0.78 0.78 0.92 1.01 1.11 1.11 1.31 1.78 2.30 2.41 2.27 1.74 1.37 1.10 2.10 2.09 0.73 0.09 0.01 0.02 0.01 0.00 0.00 0.00 0.00 0.00 0.01 0.00 0.01 0.11 0.21 0.11 0.00 0.00 0.00 0.00 0.00 0.04 0.02 0.23 0.08 0.17
1.29 1.01 0.94 1.02 0.90 0.79 0.78 0.72 0.90 1.01 1.22 1.33 1.64 2.19 2.59 2.36 2.05 1.76 1.64 1.95 1.24 0.31 0.03 0.02 0.12 0.03 0.00 0.00 0.00 0.00 0.00 0.00 0.01 0.04 0.22 0.50 0.54 0.05 0.00 0.02 0.01 0.03 0.02 0.13 0.29 0.45 0.30
1.88 1.37 1.10 1.11 1.16 0.77 0.74 0.75 0.76 1.03 1.10 1.06 1.28 2.04 2.42 2.02 2.41 2.42 2.53 1.95 1.18 0.39 0.12 0.13 0.13 0.10 0.03 0.00 0.00 0.00 0.02 0.04 0.06 0.04 0.11 0.31 0.53 0.21 0.01 0.02 0.06 0.14 0.26 0.37 0.63 0.81 0.74
1.87 2.09 1.64 1.30 1.53 1.17 0.75 0.73 0.81 0.93 1.06 1.10 1.25 1.70 2.01 1.97 2.80 2.85 2.09 1.43 0.88 0.46 0.38 0.41 0.33 0.13 0.09 0.05 0.05 0.04 0.05 0.14 0.16 0.17 0.18 0.31 0.45 0.41 0.04 0.01 0.08 0.29 0.65 0.87 1.44 1.38 1.27
1.56 1.87 2.23 1.74 1.68 1.81 1.13 0.86 0.84 0.93 0.79 0.85 1.37 1.54 1.93 1.73 1.92 1.84 1.40 1.16 0.87 0.54 0.45 0.51 0.43 0.27 0.19 0.17 0.27 0.14 0.11 0.12 0.08 0.11 0.16 0.18 0.35 0.41 0.19 0.10 0.16 0.42 0.54 0.71 0.89 1.02 0.95
0.93 1.36 1.56 2.01 1.86 2.31 1.89 1.18 0.92 0.84 0.76 0.57 1.25 1.90 2.61 2.54 1.37 0.95 0.72 0.71 0.68 0.52 0.35 0.36 0.44 0.27 0.31 0.43 0.34 0.27 0.07 0.05 0.06 0.08 0.09 0.16 0.18 0.26 0.31 0.16 0.14 0.19 0.18 0.31 0.69 0.71 0.60
0.26 0.78 1.30 1.48 2.11 2.33 2.62 2.08 1.55 1.28 1.12 1.06 1.25 1.17 1.18 1.47 1.19 0.77 0.43 0.54 0.44 0.55 0.61 0.43 0.43 0.26 0.23 0.44 0.39 0.23 0.09 0.06 0.04 0.04 0.08 0.23 0.18 0.13 0.14 0.03 0.01 0.03 0.01 0.01 0.09 0.14 0.32
0.13 0.31 0.90 1.51 1.95 1.80 2.19 2.40 1.92 1.46 1.19 1.19 1.22 0.85 0.45 0.20 0.22 0.31 0.37 0.48 0.29 0.34 0.55 0.53 0.43 0.41 0.28 0.24 0.16 0.15 0.09 0.06 0.08 0.04 0.12 0.20 0.23 0.12 0.07 0.01 0.01 0.01 0.00 0.00 0.00 0.01 0.02
0.08 0.13 0.57 1.18 1.33 1.31 1.83 2.04 1.75 1.27 1.00 1.06 0.62 0.31 0.30 0.38 0.25 0.25 0.31 0.31 0.27 0.22 0.43 0.26 0.23 0.36 0.43 0.31 0.18 0.13 0.11 0.12 0.08 0.05 0.09 0.18 0.20 0.18 0.11 0.01 0.02 0.01 0.00 0.00 0.00 0.01 0.01
0.06 0.06 0.22 0.69 0.91 0.94 1.32 1.60 1.62 1.21 0.86 0.56 0.41 0.28 0.34 0.61 0.35 0.30 0.18 0.11 0.17 0.14 0.29 0.35 0.29 0.28 0.33 0.20 0.20 0.21 0.19 0.14 0.10 0.08 0.05 0.04 0.04 0.07 0.05 0.01 0.04 0.01 0.00 0.00 0.00 0.00 0.01
0.07 0.07 0.10 0.27 0.54 0.72 0.85 0.98 1.25 1.24 0.94 0.55 0.42 0.33 0.43 0.65 0.47 0.40 0.26 0.27 0.27 0.25 0.26 0.30 0.27 0.19 0.19 0.12 0.14 0.17 0.13 0.09 0.07 0.03 0.01 0.00 0.01 0.03 0.03 0.02 0.00 0.00 0.00 0.01 0.05 0.05 0.05
0.07 0.07 0.08 0.13 0.32 0.47 0.61 0.57 0.70 0.86 0.87 0.56 0.51 0.31 0.30 0.51 0.48 0.29 0.26 0.18 0.27 0.39 0.51 0.43 0.26 0.16 0.09 0.07 0.05 0.05 0.05 0.03 0.02 0.02 0.01 0.01 0.01 0.06 0.06 0.09 0.01 0.00 0.00 0.01 0.05 0.06 0.02
0.06 0.06 0.08 0.10 0.17 0.27 0.40 0.39 0.36 0.51 0.56 0.50 0.51 0.29 0.27 0.51 0.48 0.20 0.28 0.36 0.24 0.19 0.26 0.23 0.20 0.12 0.04 0.03 0.03 0.03 0.01 0.01 0.00 0.00 0.02 0.09 0.32 0.47 0.29 0.27 0.07 0.07 0.02 0.01 0.12 0.14 0.04
0.05 0.06 0.06 0.09 0.11 0.15 0.22 0.32 0.29 0.34 0.32 0.29 0.38 0.26 0.17 0.41 0.52 0.28 0.16 0.15 0.13 0.07 0.11 0.13 0.08 0.07 0.07 0.08 0.04 0.02 0.01 0.02 0.01 0.00 0.00 0.01 0.07 0.19 0.31 0.48 0.30 0.17 0.17 0.27 0.30 0.20 0.13
0.07 0.07 0.07 0.08 0.10 0.13 0.15 0.24 0.28 0.21 0.20 0.14 0.20 0.12 0.10 0.21 0.36 0.18 0.16 0.08 0.04 0.02 0.01 0.02 0.02 0.05 0.04 0.08 0.10 0.10 0.09 0.04 0.01 0.02 0.01 0.04 0.11 0.15 0.17 0.24 0.19 0.15 0.12 0.25 0.18 0.17 0.17

GFSGBSN_prec_precacc24_198.txt.gz
Total_Precipitation_Accumulation
0.21 0.24 0.30 0.30 0.25 0.22 0.19 0.16 0.13 0.11 0.09 0.07 0.05 0.03 0.01 0.01 0.01 0.00 0.00 0.00 0.00 0.00 0.00 0.00 0.00 0.00 0.00 0.00 0.00 0.00 0.00 0.00 0.00 0.00 0.00 0.00 0.00 0.00 0.00 0.00 0.00 0.00 0.00 0.00 0.00 0.00 0.00
0.38 0.29 0.31 0.41 0.47 0.41 0.36 0.34 0.28 0.22 0.16 0.10 0.07 0.05 0.03 0.00 0.00 0.00 0.00 0.00 0.00 0.00 0.00 0.00 0.00 0.00 0.00 0.00 0.00 0.00 0.00 0.00 0.00 0.00 0.00 0.00 0.00 0.00 0.00 0.00 0.00 0.00 0.00 0.00 0.00 0.00 0.00
0.47 0.44 0.34 0.28 0.31 0.39 0.44 0.40 0.37 0.37 0.32 0.28 0.21 0.16 0.10 0.05 0.00 0.00 0.00 0.00 0.00 0.00 0.00 0.00 0.00 0.00 0.00 0.00 0.00 0.00 0.00 0.00 0.00 0.00 0.00 0.00 0.00 0.00 0.00 0.00 0.00 0.00 0.00 0.00 0.00 0.00 0.00
0.49 0.49 0.51 0.48 0.37 0.37 0.44 0.52 0.46 0.36 0.35 0.28 0.27 0.22 0.22 0.15 0.07 0.01 0.00 0.00 0.00 0.00 0.00 0.00 0.00 0.00 0.00 0.00 0.00 0.00 0.00 0.00 0.00 0.00 0.00 0.00 0.00 0.00 0.00 0.00 0.00 0.00 0.00 0.00 0.00 0.00 0.00
0.53 0.52 0.55 0.58 0.61 0.54 0.50 0.51 0.60 0.56 0.44 0.42 0.38 0.36 0.25 0.23 0.16 0.07 0.01 0.00 0.00 0.00 0.00 0.00 0.00 0.00 0.00 0.00 0.00 0.00 0.00 0.00 0.00 0.00 0.00 0.00 0.00 0.00 0.00 0.00 0.00 0.00 0.00 0.00 0.00 0.00 0.00
0.59 0.49 0.44 0.45 0.45 0.46 0.47 0.50 0.53 0.56 0.56 0.43 0.42 0.42 0.46 0.36 0.29 0.19 0.06 0.01 0.00 0.00 0.00 0.00 0.00 0.00 0.00 0.00 0.00 0.00 0.00 0.00 0.00 0.00 0.00 0.00 0.00 0.00 0.00 0.00 0.00 0.00 0.00 0.00 0.00 0.00 0.00
0.95 0.94 0.86 0.80 0.73 0.60 0.48 0.42 0.45 0.55 0.66 0.68 0.52 0.46 0.44 0.45 0.52 0.51 0.40 0.10 0.03 0.02 0.01 0.00 0.00 0.00 0.00 0.00 0.00 0.00 0.00 0.00 0.00 0.00 0.00 0.00 0.00 0.00 0.00 0.00 0.00 0.00 0.00 0.00 0.00 0.00 0.00
0.83 0.87 0.95 0.99 0.97 0.95 0.88 0.71 0.51 0.46 0.52 0.68 0.85 0.79 0.61 0.59 0.68 0.84 0.72 0.32 0.01 0.00 0.00 0.00 0.00 0.00 0.00 0.00 0.00 0.00 0.00 0.00 0.00 0.00 0.00 0.00 0.00 0.00 0.00 0.00 0.00 0.00 0.00 0.00 0.00 0.00 0.00
0.88 1.01 1.04 1.07 1.09 1.02 0.97 0.89 0.78 0.61 0.49 0.51 0.62 0.86 1.04 0.96 1.09 1.30 1.08 0.44 0.02 0.00 0.00 0.00 0.00 0.00 0.00 0.00 0.00 0.00 0.00 0.00 0.00 0.00 0.00 0.00 0.00 0.00 0.00 0.00 0.00 0.00 0.00 0.00 0.00 0.00 0.00
0.94 0.94 0.99 1.06 1.13 1.16 1.16 1.13 0.88 0.71 0.64 0.66 0.67 0.76 1.08 1.63 2.32 1.64 1.19 0.32 0.08 0.03 0.22 0.12 0.00 0.00 0.00 0.00 0.00 0.00 0.00 0.00 0.00 0.00 0.00 0.00 0.00 0.00 0.00 0.00 0.00 0.00 0.00 0.00 0.00 0.01 0.00
0.90 0.95 0.91 0.88 0.96 1.09 1.16 1.20 1.18 1.03 0.85 0.78 0.88 1.18 1.51 1.82 1.72 1.29 0.78 0.25 0.34 0.49 1.41 0.39 0.01 0.00 0.00 0.00 0.00 0.00 0.00 0.00 0.00 0.00 0.00 0.00 0.00 0.00 0.00 0.00 0.00 0.00 0.00 0.00 0.00 0.01 0.02
0.68 0.83 0.94 0.96 0.92 0.89 0.96 1.07 1.13 1.14 1.16 1.06 1.04 1.27 1.75 1.96 1.82 0.88 0.32 0.55 1.48 2.57 2.57 0.41 0.00 0.00 0.00 0.00 0.00 0.00 0.00 0.00 0.00 0.00 0.00 0.00 0.00 0.00 0.00 0.00 0.00 0.00 0.00 0.00 0.00 0.01 0.03
1.21 0.90 0.79 0.90 1.00 1.05 0.97 0.93 0.94 1.11 1.19 1.27 1.40 1.49 1.72 1.51 1.83 1.10 1.04 1.96 3.73 3.92 1.45 0.15 0.00 0.00 0.00 0.00 0.00 0.00 0.00 0.00 0.00 0.00 0.00 0.00 0.00 0.00 0.00 0.00 0.00 0.00 0.00 0.02 0.02 0.01 0.01
0.96 1.10 1.05 0.88 0.82 0.90 1.00 1.04 1.01 0.97 1.04 1.25 1.61 1.87 1.98 1.74 1.31 1.40 1.65 2.68 4.36 2.80 0.61 0.01 0.00 0.00 0.00 0.00 0.00 0.00 0.00 0.00 0.00 0.00 0.00 0.00 0.00 0.00 0.00 0.00 0.00 0.00 0.00 0.02 0.03 0.00 0.00
0.70 0.78 0.97 0.99 0.84 0.78 0.78 0.92 1.02 1.10 1.11 1.30 1.81 2.36 2.58 2.55 2.19 2.27 2.82 4.08 3.68 1.40 0.14 0.00 0.01 0.01 0.00 0.00 0.00 0.00 0.00 0.00 0.00 0.00 0.02 0.03 0.03 0.00 0.00 0.00 0.00 0.00 0.00 0.00 0.07 0.07 0.12
1.05 0.79 0.80 0.96 0.90 0.80 0.79 0.73 0.90 1.02 1.24 1.38 1.69 2.23 2.71 2.48 2.44 2.81 3.08 3.69 2.41 0.53 0.03 0.01 0.04 0.02 0.00 0.00 0.00 0.00 0.00 0.00 0.00 0.00 0.03 0.10 0.15 0.01 0.00 0.00 0.00 0.02 0.01 0.09 0.25 0.38 0.21
1.71 1.23 0.99 1.05 1.15 0.78 0.74 0.75 0.77 1.03 1.13 1.13 1.37 2.13 2.46 2.07 2.76 3.73 3.92 3.27 1.96 0.50 0.12 0.10 0.12 0.06 0.02 0.00 0.00 0.00 0.00 0.01 0.01 0.00 0.02 0.11 0.25 0.11 0.00 0.01 0.03 0.08 0.14 0.22 0.41 0.51 0.57
1.75 2.00 1.59 1.27 1.51 1.15 0.75 0.74 0.83 0.94 1.09 1.20 1.44 1.89 2.04 2.02 3.26 3.87 3.36 2.40 1.30 0.51 0.37 0.39 0.28 0.12 0.08 0.05 0.04 0.03 0.02 0.02 0.01 0.03 0.05 0.12 0.22 0.23 0.04 0.00 0.03 0.15 0.41 0.53 0.72 0.69 0.70
1.53 1.85 2.22 1.74 1.70 1.81 1.12 0.86 0.85 0.91 0.84 1.03 1.54 1.60 1.98 1.82 2.30 2.47 2.13 1.88 1.15 0.57 0.45 0.50 0.44 0.17 0.12 0.10 0.18 0.12 0.07 0.03 0.01 0.01 0.03 0.03 0.23 0.35 0.28 0.13 0.10 0.25 0.28 0.33 0.42 0.48 0.40
0.94 1.36 1.56 2.03 1.88 2.34 1.92 1.20 0.94 0.87 0.79 0.83 1.47 1.97 2.68 2.73 1.63 1.16 1.05 1.18 1.06 0.63 0.34 0.31 0.34 0.19 0.19 0.37 0.38 0.25 0.07 0.04 0.00 0.00 0.01 0.03 0.05 0.11 0.20 0.13 0.06 0.06 0.07 0.12 0.25 0.31 0.25
0.29 0.80 1.31 1.47 2.13 2.36 2.69 2.18 1.66 1.41 1.22 1.38 1.64 1.31 1.23 1.65 1.42 1.04 0.60 0.63 0.50 0.61 0.57 0.32 0.36 0.23 0.19 0.49 0.51 0.28 0.10 0.06 0.04 0.01 0.02 0.06 0.06 0.06 0.11 0.05 0.03 0.02 0.01 0.01 0.03 0.03 0.09
0.15 0.32 0.90 1.52 1.98 1.83 2.23 2.51 2.09 1.64 1.63 1.84 1.51 0.96 0.50 0.21 0.29 0.45 0.58 0.70 0.31 0.31 0.43 0.33 0.21 0.21 0.22 0.25 0.20 0.19 0.09 0.06 0.08 0.03 0.03 0.05 0.14 0.13 0.15 0.13 0.12 0.06 0.01 0.01 0.00 0.00 0.00
0.06 0.11 0.55 1.18 1.35 1.34 1.93 2.16 1.95 1.48 1.40 1.89 0.86 0.37 0.33 0.39 0.26 0.29 0.41 0.42 0.29 0.18 0.32 0.17 0.12 0.20 0.39 0.31 0.21 0.18 0.16 0.17 0.11 0.06 0.09 0.11 0.19 0.20 0.24 0.24 0.23 0.20 0.02 0.00 0.00 0.00 0.00
0.05 0.03 0.19 0.68 0.92 1.01 1.50 1.85 1.89 1.44 1.09 0.92 0.53 0.29 0.49 0.79 0.36 0.32 0.20 0.13 0.16 0.11 0.23 0.32 0.28 0.28 0.44 0.33 0.35 0.46 0.51 0.49 0.41 0.37 0.24 0.21 0.21 0.27 0.29 0.24 0.24 0.07 0.00 0.00 0.00 0.00 0.01
0.05 0.04 0.07 0.24 0.54 0.78 1.09 1.30 1.61 1.65 1.13 0.77 0.55 0.34 0.42 0.78 0.52 0.38 0.25 0.28 0.27 0.25 0.27 0.30 0.28 0.25 0.31 0.19 0.37 0.82 0.97 0.88 0.80 0.60 0.42 0.24 0.16 0.26 0.29 0.19 0.05 0.01 0.00 0.01 0.05 0.05 0.03
0.05 0.04 0.05 0.09 0.31 0.53 0.84 0.93 1.08 1.45 1.30 0.85 0.67 0.32 0.30 0.53 0.55 0.27 0.23 0.16 0.29 0.46 0.70 0.55 0.33 0.31 0.22 0.25 0.52 0.64 0.53 0.37 0.32 0.33 0.33 0.26 0.19 0.22 0.30 0.21 0.09 0.01 0.00 0.01 0.03 0.06 0.02
0.04 0.04 0.05 0.06 0.15 0.32 0.58 0.66 0.70 1.04 0.95 0.92 0.74 0.30 0.24 0.50 0.51 0.21 0.31 0.35 0.24 0.20 0.41 0.47 0.59 0.58 0.31 0.29 0.49 0.48 0.34 0.15 0.10 0.08 0.18 0.21 0.20 0.21 0.19 0.18 0.07 0.07 0.02 0.01 0.09 0.12 0.03
0.03 0.03 0.03 0.05 0.06 0.16 0.38 0.49 0.51 0.64 0.70 0.57 0.93 0.32 0.14 0.35 0.59 0.28 0.17 0.16 0.16 0.10 0.23 0.35 0.23 0.33 0.28 0.20 0.23 0.29 0.19 0.12 0.06 0.04 0.02 0.05 0.07 0.12 0.16 0.18 0.13 0.09 0.04 0.06 0.12 0.06 0.03
0.04 0.04 0.04 0.04 0.06 0.11 0.25 0.38 0.44 0.42 0.54 0.30 0.66 0.44 0.12 0.18 0.46 0.23 0.19 0.10 0.05 0.03 0.03 0.06 0.03 0.06 0.06 0.09 0.11 0.09 0.05 0.04 0.03 0.08 0.04 0.02 0.02 0.04 0.05 0.08 0.10 0.11 0.02 0.02 0.03 0.00 0.00

GFSGBSN_prec_precacc24_201.txt.gz
Total_Precipitation_Accumulation
0.21 0.24 0.30 0.30 0.25 0.22 0.19 0.16 0.13 0.10 0.09 0.07 0.06 0.04 0.03 0.03 0.02 0.01 0.00 0.00 0.00 0.00 0.00 0.00 0.00 0.00 0.00 0.00 0.00 0.00 0.00 0.00 0.00 0.00 0.00 0.00 0.00 0.00 0.00 0.00 0.00 0.00 0.00 0.00 0.00 0.00 0.00
0.39 0.29 0.31 0.41 0.47 0.41 0.36 0.34 0.28 0.22 0.16 0.10 0.07 0.06 0.06 0.04 0.03 0.01 0.01 0.00 0.00 0.00 0.00 0.00 0.00 0.00 0.00 0.00 0.00 0.00 0.00 0.00 0.00 0.00 0.00 0.00 0.00 0.00 0.00 0.00 0.00 0.00 0.00 0.00 0.00 0.00 0.00
0.48 0.45 0.35 0.29 0.31 0.38 0.42 0.39 0.37 0.37 0.32 0.28 0.21 0.16 0.12 0.11 0.08 0.04 0.02 0.00 0.00 0.00 0.00 0.00 0.00 0.00 0.00 0.00 0.00 0.00 0.00 0.00 0.00 0.00 0.00 0.00 0.00 0.00 0.00 0.00 0.00 0.00 0.00 0.00 0.00 0.00 0.00
0.48 0.48 0.51 0.48 0.38 0.36 0.42 0.50 0.45 0.36 0.35 0.28 0.27 0.22 0.23 0.19 0.17 0.15 0.09 0.03 0.00 0.00 0.00 0.00 0.00 0.00 0.00 0.00 0.00 0.00 0.00 0.00 0.00 0.00 0.00 0.00 0.00 0.00 0.00 0.00 0.00 0.00 0.00 0.00 0.00 0.00 0.00
0.47 0.47 0.50 0.54 0.59 0.53 0.49 0.50 0.58 0.55 0.44 0.42 0.38 0.36 0.25 0.25 0.21 0.19 0.18 0.13 0.06 0.00 0.00 0.00 0.00 0.00 0.00 0.00 0.00 0.00 0.00 0.00 0.00 0.00 0.00 0.00 0.00 0.00 0.00 0.00 0.00 0.00 0.00 0.00 0.00 0.00 0.00
0.47 0.40 0.38 0.38 0.36 0.39 0.44 0.49 0.53 0.56 0.56 0.43 0.42 0.42 0.47 0.37 0.33 0.28 0.28 0.31 0.27 0.11 0.02 0.02 0.01 0.00 0.00 0.00 0.00 0.00 0.00 0.00 0.00 0.00 0.00 0.00 0.00 0.00 0.00 0.00 0.00 0.00 0.00 0.00 0.00 0.00 0.00
0.76 0.78 0.70 0.64 0.56 0.45 0.38 0.38 0.45 0.56 0.67 0.68 0.52 0.46 0.45 0.47 0.55 0.57 0.63 0.80 0.83 0.46 0.08 0.01 0.00 0.00 0.00 0.00 0.00 0.00 0.00 0.00 0.00 0.00 0.00 0.00 0.00 0.00 0.00 0.00 0.00 0.00 0.00 0.00 0.00 0.00 0.00
0.46 0.54 0.61 0.65 0.68 0.73 0.76 0.63 0.47 0.46 0.52 0.68 0.85 0.79 0.61 0.61 0.74 0.94 0.97 0.90 0.53 0.16 0.07 0.01 0.00 0.00 0.00 0.00 0.00 0.00 0.00 0.00 0.00 0.00 0.00 0.00 0.00 0.00 0.00 0.00 0.00 0.00 0.00 0.00 0.00 0.00 0.00
0.33 0.40 0.50 0.57 0.67 0.75 0.81 0.80 0.73 0.59 0.49 0.51 0.62 0.86 1.04 0.96 1.10 1.41 1.37 0.78 0.25 0.17 0.17 0.03 0.00 0.00 0.00 0.00 0.00 0.00 0.00 0.00 0.00 0.00 0.00 0.00 0.00 0.00 0.00 0.00 0.00 0.00 0.00 0.00 0.00 0.00 0.00
0.32 0.38 0.45 0.53 0.70 0.87 0.98 0.99 0.80 0.69 0.64 0.66 0.67 0.76 1.08 1.63 2.34 1.69 1.41 0.55 0.33 0.45 0.73 0.27 0.00 0.00 0.00 0.00 0.00 0.00 0.00 0.00 0.00 0.00 0.00 0.00 0.00 0.00 0.00 0.00 0.00 0.00 0.00 0.00 0.00 0.01 0.00
0.32 0.47 0.52 0.56 0.74 0.91 1.02 1.09 1.10 0.97 0.82 0.78 0.88 1.18 1.51 1.83 1.76 1.34 0.84 0.38 0.63 1.21 2.30 0.59 0.01 0.00 0.00 0.00 0.00 0.00 0.00 0.00 0.00 0.00 0.00 0.00 0.00 0.00 0.00 0.00 0.00 0.00 0.00 0.00 0.00 0.01 0.02
0.33 0.47 0.65 0.75 0.76 0.77 0.86 0.97 1.06 1.10 1.12 1.05 1.03 1.27 1.76 1.96 1.83 0.91 0.39 0.73 1.86 3.55 3.46 0.50 0.00 0.00 0.00 0.00 0.00 0.00 0.00 0.00 0.00 0.00 0.00 0.00 0.00 0.00 0.00 0.00 0.00 0.00 0.00 0.00 0.00 0.01 0.02
0.87 0.59 0.54 0.68 0.85 0.94 0.89 0.86 0.90 1.08 1.15 1.23 1.38 1.48 1.72 1.51 1.83 1.13 1.15 2.18 4.33 4.91 2.00 0.23 0.00 0.00 0.00 0.00 0.00 0.00 0.00 0.00 0.00 0.00 0.00 0.00 0.00 0.00 0.00 0.00 0.00 0.00 0.00 0.01 0.02 0.00 0.01
0.75 0.91 0.82 0.68 0.69 0.83 0.96 1.02 1.00 0.97 1.03 1.22 1.56 1.81 1.97 1.73 1.31 1.44 2.09 3.30 4.82 3.28 0.95 0.04 0.00 0.00 0.00 0.00 0.00 0.00 0.00 0.00 0.00 0.00 0.00 0.00 0.00 0.00 0.00 0.00 0.00 0.00 0.00 0.01 0.02 0.00 0.00
0.54 0.61 0.77 0.79 0.74 0.73 0.72 0.88 1.01 1.09 1.10 1.26 1.77 2.31 2.55 2.53 2.18 2.33 3.28 4.87 4.16 1.64 0.24 0.01 0.01 0.01 0.00 0.00 0.00 0.00 0.00 0.00 0.00 0.00 0.00 0.00 0.00 0.00 0.00 0.00 0.00 0.00 0.00 0.00 0.05 0.07 0.13
0.83 0.62 0.62 0.78 0.76 0.73 0.74 0.69 0.88 1.01 1.23 1.37 1.67 2.19 2.67 2.43 2.43 2.86 3.55 4.19 2.73 0.68 0.04 0.01 0.05 0.03 0.00 0.00 0.00 0.00 0.00 0.00 0.00 0.00 0.00 0.02 0.04 0.00 0.00 0.00 0.00 0.01 0.01 0.06 0.24 0.37 0.22
1.33 0.98 0.76 0.85 1.00 0.69 0.69 0.71 0.74 1.01 1.11 1.17 1.41 2.13 2.43 2.03 2.74 3.75 4.19 3.50 2.06 0.60 0.14 0.10 0.12 0.07 0.02 0.00 0.00 0.00 0.00 0.00 0.00 0.00 0.00 0.02 0.09 0.04 0.00 0.00 0.00 0.03 0.06 0.13 0.23 0.35 0.49
1.40 1.72 1.34 1.07 1.34 1.04 0.70 0.73 0.82 0.92 1.12 1.29 1.49 1.94 2.04 2.02 3.23 3.88 3.44 2.46 1.33 0.54 0.41 0.42 0.28 0.13 0.08 0.05 0.04 0.03 0.01 0.00 0.00 0.00 0.00 0.00 0.05 0.06 0.01 0.00 0.00 0.05 0.16 0.19 0.28 0.25 0.26
1.32 1.63 1.99 1.54 1.56 1.73 1.08 0.84 0.85 0.88 0.91 1.08 1.63 1.63 2.00 1.88 2.36 2.48 2.13 1.89 1.16 0.59 0.52 0.65 0.46 0.18 0.13 0.09 0.17 0.10 0.05 0.02 0.00 0.00 0.00 0.00 0.12 0.25 0.26 0.10 0.02 0.04 0.05 0.11 0.18 0.20 0.17
0.91 1.31 1.49 1.91 1.77 2.27 1.90 1.20 0.94 0.86 0.83 0.94 1.63 2.03 2.68 2.72 1.70 1.19 1.05 1.18 1.09 0.63 0.36 0.47 0.42 0.17 0.17 0.35 0.35 0.20 0.06 0.03 0.00 0.00 0.00 0.00 0.02 0.04 0.09 0.04 0.00 0.00 0.00 0.03 0.09 0.15 0.12
0.30 0.82 1.31 1.45 2.07 2.31 2.66 2.16 1.65 1.39 1.20 1.63 2.02 1.43 1.23 1.63 1.42 1.04 0.62 0.64 0.50 0.62 0.58 0.34 0.47 0.26 0.18 0.50 0.53 0.30 0.11 0.06 0.04 0.01 0.01 0.05 0.08 0.06 0.09 0.04 0.03 0.00 0.00 0.00 0.01 0.01 0.04
0.14 0.32 0.90 1.52 1.97 1.82 2.21 2.50 2.08 1.64 1.60 2.10 1.81 1.03 0.52 0.22 0.29 0.45 0.58 0.71 0.32 0.32 0.46 0.36 0.25 0.23 0.15 0.19 0.19 0.21 0.11 0.06 0.08 0.03 0.04 0.09 0.20 0.13 0.15 0.13 0.12 0.05 0.01 0.01 0.00 0.00 0.00
0.06 0.12 0.55 1.19 1.36 1.34 1.93 2.17 1.97 1.50 1.47 2.05 0.97 0.41 0.38 0.42 0.26 0.30 0.41 0.42 0.29 0.19 0.33 0.18 0.12 0.15 0.22 0.16 0.12 0.15 0.16 0.21 0.13 0.06 0.10 0.16 0.27 0.26 0.29 0.26 0.24 0.28 0.04 0.00 0.00 0.00 0.00
0.05 0.04 0.19 0.68 0.93 1.03 1.50 1.85 1.91 1.49 1.24 1.17 0.63 0.32 0.60 0.85 0.38 0.33 0.20 0.13 0.16 0.12 0.22 0.31 0.22 0.25 0.44 0.32 0.34 0.46 0.55 0.56 0.56 0.51 0.30 0.28 0.31 0.45 0.48 0.33 0.34 0.16 0.01 0.00 0.00 0.00 0.00
0.05 0.03 0.07 0.24 0.55 0.78 1.11 1.32 1.64 1.73 1.29 1.08 0.77 0.40 0.50 0.83 0.53 0.39 0.25 0.28 0.27 0.25 0.28 0.31 0.28 0.25 0.32 0.20 0.42 0.96 1.13 1.02 0.94 0.80 0.66 0.47 0.34 0.45 0.49 0.30 0.08 0.01 0.00 0.01 0.05 0.05 0.03
0.05 0.03 0.07 0.09 0.30 0.52 0.83 0.95 1.14 1.55 1.45 1.13 0.97 0.42 0.36 0.58 0.55 0.28 0.23 0.16 0.29 0.46 0.73 0.58 0.34 0.33 0.27 0.34 0.69 0.88 0.73 0.50 0.42 0.41 0.45 0.48 0.51 0.51 0.61 0.34 0.14 0.01 0.00 0.00 0.02 0.06 0.02
0.05 0.06 0.04 0.04 0.13 0.30 0.59 0.74 0.81 1.15 1.05 1.11 0.99 0.37 0.31 0.61 0.53 0.22 0.32 0.36 0.24 0.22 0.46 0.55 0.63 0.69 0.48 0.50 0.72 0.71 0.51 0.21 0.13 0.09 0.21 0.29 0.36 0.42 0.40 0.24 0.07 0.01 0.00 0.00 0.05 0.09 0.02
0.05 0.02 0.02 0.03 0.05 0.15 0.41 0.56 0.60 0.71 0.77 0.69 1.05 0.40 0.32 0.49 0.61 0.29 0.17 0.17 0.16 0.12 0.25 0.44 0.32 0.46 0.48 0.39 0.43 0.47 0.33 0.20 0.07 0.04 0.02 0.06 0.10 0.18 0.22 0.23 0.07 0.00 0.00 0.01 0.03 0.04 0.02
0.03 0.04 0.02 0.03 0.05 0.11 0.28 0.44 0.48 0.46 0.59 0.34 0.72 0.62 0.42 0.40 0.51 0.23 0.19 0.11 0.06 0.04 0.03 0.07 0.10 0.13 0.14 0.18 0.19 0.19 0.12 0.07 0.03 0.08 0.04 0.02 0.00 0.01 0.02 0.03 0.01 0.00 0.00 0.00 0.01 0.00 0.00

GFSGBSN_prec_precacc24_207.txt.gz
Total_Precipitation_Accumulation
0.22 0.26 0.31 0.31 0.26 0.22 0.19 0.16 0.14 0.11 0.09 0.07 0.06 0.05 0.03 0.02 0.03 0.03 0.02 0.01 0.01 0.00 0.00 0.00 0.00 0.00 0.00 0.00 0.00 0.00 0.00 0.00 0.00 0.00 0.00 0.00 0.00 0.00 0.00 0.00 0.00 0.00 0.00 0.00 0.00 0.00 0.00
0.39 0.31 0.33 0.43 0.48 0.43 0.36 0.34 0.28 0.22 0.16 0.10 0.07 0.06 0.06 0.04 0.03 0.04 0.04 0.03 0.02 0.02 0.01 0.00 0.00 0.00 0.00 0.00 0.00 0.00 0.00 0.00 0.00 0.00 0.00 0.00 0.00 0.00 0.00 0.00 0.00 0.00 0.00 0.00 0.00 0.00 0.00
0.28 0.43 0.37 0.30 0.33 0.40 0.44 0.40 0.37 0.37 0.32 0.28 0.21 0.16 0.12 0.11 0.08 0.06 0.05 0.04 0.04 0.07 0.08 0.05 0.00 0.00 0.00 0.00 0.00 0.00 0.00 0.00 0.00 0.00 0.00 0.00 0.00 0.00 0.00 0.00 0.00 0.00 0.00 0.00 0.00 0.00 0.00
0.22 0.31 0.45 0.49 0.39 0.38 0.45 0.51 0.45 0.36 0.35 0.28 0.27 0.22 0.23 0.19 0.17 0.15 0.10 0.08 0.08 0.08 0.13 0.16 0.06 0.00 0.00 0.00 0.00 0.00 0.00 0.00 0.00 0.00 0.00 0.00 0.00 0.00 0.00 0.00 0.00 0.00 0.00 0.00 0.00 0.00 0.00
0.16 0.22 0.32 0.48 0.60 0.56 0.52 0.51 0.58 0.55 0.44 0.42 0.38 0.36 0.25 0.25 0.22 0.20 0.19 0.15 0.14 0.20 0.29 0.26 0.14 0.02 0.00 0.00 0.00 0.00 0.00 0.00 0.00 0.00 0.00 0.00 0.00 0.00 0.00 0.00 0.00 0.00 0.00 0.00 0.00 0.00 0.00
0.17 0.20 0.24 0.28 0.35 0.39 0.45 0.49 0.51 0.54 0.54 0.44 0.43 0.42 0.47 0.37 0.33 0.29 0.29 0.33 0.34 0.47 0.58 0.58 0.29 0.05 0.00 0.00 0.00 0.00 0.00 0.00 0.00 0.00 0.00 0.00 0.00 0.00 0.00 0.00 0.00 0.00 0.00 0.00 0.00 0.00 0.00
0.20 0.22 0.24 0.26 0.34 0.37 0.35 0.37 0.45 0.56 0.65 0.67 0.52 0.46 0.45 0.47 0.55 0.57 0.65 0.86 0.94 0.88 0.67 0.32 0.12 0.01 0.00 0.00 0.00 0.00 0.00 0.00 0.00 0.00 0.00 0.00 0.00 0.00 0.00 0.00 0.00 0.00 0.00 0.00 0.00 0.00 0.00
0.14 0.15 0.16 0.19 0.25 0.39 0.48 0.47 0.41 0.42 0.49 0.66 0.83 0.79 0.61 0.61 0.74 0.95 1.00 0.97 0.57 0.30 0.30 0.08 0.00 0.00 0.00 0.00 0.00 0.00 0.00 0.00 0.00 0.00 0.00 0.00 0.00 0.00 0.00 0.00 0.00 0.00 0.00 0.00 0.00 0.00 0.00
0.10 0.17 0.21 0.18 0.17 0.19 0.30 0.36 0.45 0.46 0.40 0.46 0.58 0.83 1.03 0.96 1.09 1.41 1.39 0.80 0.31 0.26 0.38 0.20 0.05 0.01 0.00 0.00 0.00 0.00 0.00 0.00 0.00 0.00 0.00 0.00 0.00 0.00 0.00 0.00 0.00 0.00 0.00 0.00 0.00 0.00 0.00
0.11 0.11 0.15 0.17 0.21 0.24 0.27 0.28 0.28 0.33 0.41 0.52 0.56 0.68 1.03 1.62 2.33 1.69 1.42 0.57 0.42 0.60 1.05 0.50 0.06 0.03 0.00 0.00 0.00 0.00 0.00 0.00 0.00 0.00 0.00 0.00 0.00 0.00 0.00 0.00 0.00 0.00 0.00 0.00 0.00 0.00 0.00
0.11 0.14 0.20 0.21 0.24 0.20 0.19 0.22 0.26 0.30 0.33 0.42 0.57 0.90 1.39 1.82 1.75 1.34 0.85 0.44 0.85 1.68 2.62 0.68 0.03 0.00 0.00 0.00 0.00 0.00 0.00 0.00 0.00 0.00 0.00 0.00 0.00 0.00 0.00 0.00 0.00 0.00 0.00 0.00 0.00 0.00 0.00
0.20 0.18 0.22 0.20 0.15 0.14 0.15 0.17 0.22 0.26 0.38 0.44 0.53 0.92 1.60 1.89 1.83 0.91 0.39 0.78 2.17 4.28 3.93 0.60 0.01 0.00 0.00 0.00 0.00 0.00 0.00 0.00 0.00 0.00 0.00 0.00 0.00 0.00 0.00 0.00 0.00 0.00 0.00 0.00 0.00 0.00 0.00
0.08 0.10 0.16 0.15 0.16 0.19 0.16 0.16 0.17 0.23 0.30 0.46 0.76 1.06 1.57 1.49 1.82 1.13 1.16 2.26 4.61 5.41 2.39 0.36 0.02 0.00 0.00 0.00 0.00 0.00 0.00 0.00 0.01 0.02 0.01 0.00 0.00 0.00 0.00 0.00 0.00 0.00 0.00 0.01 0.01 0.00 0.00
0.08 0.09 0.11 0.11 0.13 0.14 0.13 0.12 0.14 0.25 0.37 0.52 0.92 1.31 1.69 1.60 1.28 1.45 2.12 3.57 5.06 3.42 1.15 0.15 0.01 0.01 0.00 0.00 0.00 0.00 0.00 0.00 0.00 0.00 0.00 0.00 0.00 0.00 0.00 0.00 0.00 0.00 0.00 0.01 0.02 0.00 0.00
0.12 0.12 0.10 0.04 0.05 0.05 0.07 0.09 0.14 0.27 0.45 0.64 1.10 1.70 2.16 2.29 2.09 2.33 3.23 5.04 4.38 1.73 0.34 0.07 0.04 0.09 0.04 0.00 0.00 0.00 0.00 0.02 0.00 0.00 0.00 0.00 0.00 0.00 0.00 0.00 0.00 0.00 0.00 0.00 0.02 0.05 0.07
0.16 0.13 0.15 0.16 0.09 0.08 0.08 0.09 0.23 0.42 0.60 0.90 1.12 1.59 2.18 2.13 2.27 2.67 3.39 4.17 2.80 0.79 0.13 0.06 0.10 0.11 0.09 0.01 0.00 0.00 0.01 0.00 0.00 0.00 0.00 0.00 0.00 0.00 0.00 0.00 0.00 0.00 0.00 0.01 0.13 0.15 0.08
0.18 0.23 0.28 0.34 0.44 0.14 0.11 0.12 0.19 0.44 0.60 0.89 0.99 1.56 1.83 1.73 2.49 3.41 3.96 3.44 2.05 0.62 0.29 0.29 0.20 0.18 0.12 0.04 0.01 0.00 0.00 0.00 0.00 0.00 0.00 0.00 0.01 0.01 0.00 0.00 0.00 0.00 0.00 0.00 0.01 0.00 0.01
0.21 0.40 0.56 0.47 0.72 0.54 0.24 0.22 0.30 0.41 0.68 1.09 1.16 1.65 1.63 1.77 2.90 3.60 3.33 2.44 1.32 0.53 0.50 0.68 0.50 0.27 0.22 0.21 0.16 0.05 0.02 0.00 0.00 0.00 0.00 0.00 0.04 0.04 0.01 0.00 0.00 0.01 0.00 0.00 0.00 0.00 0.00
0.31 0.56 0.74 0.76 0.92 1.17 0.61 0.36 0.35 0.47 0.73 0.94 1.54 1.49 1.72 1.80 2.29 2.41 2.09 1.88 1.15 0.58 0.53 0.86 0.71 0.36 0.26 0.15 0.37 0.23 0.07 0.02 0.00 0.00 0.00 0.00 0.13 0.26 0.30 0.13 0.04 0.04 0.01 0.01 0.00 0.00 0.00
0.29 0.70 0.78 0.95 1.01 1.74 1.46 0.72 0.49 0.50 0.79 1.04 1.63 1.89 2.28 2.43 1.69 1.22 1.07 1.18 1.06 0.62 0.35 0.49 0.55 0.29 0.38 0.59 0.46 0.34 0.15 0.06 0.00 0.00 0.00 0.00 0.03 0.09 0.14 0.08 0.03 0.01 0.01 0.02 0.02 0.02 0.00
0.19 0.48 0.87 0.88 1.31 1.75 2.19 1.68 1.19 0.99 1.11 1.78 2.23 1.49 1.14 1.52 1.41 1.05 0.66 0.69 0.50 0.62 0.58 0.34 0.49 0.36 0.31 0.76 0.83 0.46 0.17 0.09 0.05 0.01 0.01 0.04 0.22 0.14 0.11 0.04 0.03 0.00 0.00 0.01 0.02 0.00 0.01
0.13 0.28 0.74 1.18 1.52 1.32 1.71 1.97 1.58 1.22 1.49 2.18 1.99 1.13 0.58 0.23 0.29 0.45 0.59 0.73 0.33 0.32 0.47 0.37 0.26 0.25 0.22 0.37 0.36 0.49 0.31 0.16 0.15 0.06 0.06 0.15 0.47 0.19 0.17 0.13 0.12 0.06 0.01 0.02 0.00 0.00 0.00
0.08 0.13 0.54 1.12 1.20 1.05 1.56 1.75 1.54 1.11 1.31 2.03 1.04 0.45 0.49 0.53 0.29 0.32 0.42 0.42 0.29 0.19 0.33 0.19 0.12 0.16 0.28 0.28 0.17 0.22 0.29 0.45 0.37 0.21 0.18 0.29 0.58 0.50 0.46 0.26 0.25 0.38 0.11 0.01 0.00 0.00 0.00
0.09 0.06 0.22 0.70 0.92 0.97 1.35 1.64 1.63 1.16 1.14 1.18 0.70 0.36 0.75 0.98 0.43 0.35 0.20 0.13 0.16 0.12 0.22 0.31 0.22 0.25 0.44 0.33 0.41 0.60 0.77 0.84 0.80 0.82 0.47 0.47 0.54 0.89 0.94 0.51 0.67 0.57 0.05 0.00 0.00 0.00 0.00
0.07 0.06 0.12 0.30 0.65 0.87 1.13 1.28 1.55 1.52 1.14 1.13 0.89 0.49 0.68 0.96 0.55 0.39 0.25 0.28 0.27 0.25 0.28 0.31 0.28 0.25 0.34 0.23 0.52 1.26 1.46 1.31 1.23 1.00 0.94 0.73 0.57 0.90 0.90 0.72 0.50 0.11 0.00 0.00 0.00 0.00 0.00
0.05 0.07 0.14 0.12 0.29 0.50 0.83 0.95 1.10 1.43 1.28 1.17 1.08 0.55 0.56 0.89 0.62 0.28 0.23 0.16 0.29 0.46 0.73 0.58 0.34 0.34 0.33 0.49 0.97 1.16 0.98 0.72 0.64 0.71 0.60 0.65 0.77 0.99 1.22 0.74 0.37 0.03 0.00 0.00 0.02 0.13 0.01
0.05 0.06 0.03 0.03 0.12 0.29 0.58 0.74 0.84 1.09 1.00 1.28 1.25 0.52 0.72 1.08 0.62 0.22 0.33 0.36 0.24 0.22 0.46 0.55 0.64 0.72 0.54 0.64 1.08 1.05 0.69 0.30 0.24 0.22 0.45 0.57 0.64 0.73 0.81 0.59 0.21 0.00 0.00 0.00 0.08 0.08 0.00
0.04 0.02 0.02 0.02 0.05 0.14 0.39 0.54 0.61 0.68 0.74 0.92 1.35 0.48 0.92 1.20 0.79 0.30 0.16 0.17 0.17 0.13 0.28 0.45 0.35 0.53 0.60 0.56 0.72 0.70 0.57 0.33 0.17 0.10 0.08 0.25 0.31 0.36 0.36 0.34 0.10 0.00 0.00 0.00 0.01 0.00 0.00
0.02 0.02 0.02 0.03 0.04 0.10 0.26 0.40 0.44 0.46 0.63 0.53 1.01 0.72 0.92 1.28 0.98 0.27 0.19 0.10 0.05 0.04 0.03 0.09 0.12 0.19 0.24 0.38 0.35 0.36 0.25 0.18 0.14 0.18 0.08 0.04 0.05 0.07 0.04 0.05 0.01 0.00 0.00 0.00 0.00 0.00 0.00

GFSGBSN_prec_precacc24_210.txt.gz
Total_Precipitation_Accumulation
0.09 0.16 0.28 0.31 0.27 0.23 0.20 0.16 0.14 0.11 0.10 0.07 0.06 0.05 0.03 0.02 0.03 0.03 0.02 0.01 0.01 0.01 0.01 0.00 0.00 0.00 0.00 0.00 0.00 0.00 0.00 0.00 0.00 0.00 0.00 0.00 0.00 0.00 0.00 0.00 0.00 0.00 0.00 0.00 0.00 0.00 0.00
0.15 0.14 0.17 0.34 0.50 0.45 0.38 0.35 0.29 0.23 0.16 0.10 0.07 0.06 0.06 0.04 0.03 0.04 0.04 0.03 0.02 0.02 0.02 0.03 0.01 0.00 0.00 0.00 0.00 0.00 0.00 0.00 0.00 0.00 0.00 0.00 0.00 0.00 0.00 0.00 0.00 0.00 0.00 0.00 0.00 0.00 0.00
0.13 0.20 0.23 0.23 0.31 0.41 0.45 0.43 0.40 0.38 0.32 0.28 0.21 0.16 0.12 0.11 0.08 0.06 0.05 0.03 0.04 0.08 0.10 0.12 0.09 0.01 0.00 0.00 0.00 0.00 0.00 0.00 0.00 0.00 0.00 0.00 0.00 0.00 0.00 0.00 0.00 0.00 0.00 0.00 0.00 0.00 0.00
0.08 0.13 0.23 0.31 0.30 0.37 0.45 0.53 0.48 0.37 0.35 0.28 0.27 0.23 0.23 0.19 0.17 0.15 0.10 0.08 0.08 0.08 0.14 0.25 0.24 0.04 0.00 0.00 0.00 0.00 0.00 0.00 0.00 0.00 0.00 0.00 0.00 0.00 0.00 0.00 0.00 0.00 0.00 0.00 0.00 0.00 0.00
0.06 0.07 0.11 0.19 0.27 0.33 0.45 0.52 0.61 0.57 0.45 0.42 0.38 0.37 0.25 0.25 0.22 0.20 0.19 0.15 0.14 0.20 0.29 0.30 0.34 0.15 0.01 0.00 0.00 0.00 0.00 0.00 0.00 0.00 0.00 0.00 0.00 0.00 0.00 0.00 0.00 0.00 0.00 0.00 0.00 0.00 0.00
0.07 0.09 0.11 0.13 0.17 0.21 0.25 0.40 0.54 0.58 0.57 0.45 0.44 0.43 0.47 0.37 0.33 0.29 0.28 0.33 0.34 0.47 0.59 0.63 0.43 0.14 0.01 0.00 0.00 0.00 0.00 0.00 0.00 0.00 0.00 0.00 0.00 0.00 0.00 0.00 0.00 0.00 0.00 0.00 0.00 0.00 0.00
0.09 0.11 0.15 0.16 0.21 0.24 0.29 0.31 0.44 0.59 0.69 0.71 0.54 0.47 0.46 0.47 0.55 0.57 0.64 0.86 0.94 0.88 0.68 0.33 0.16 0.04 0.00 0.00 0.00 0.00 0.00 0.00 0.00 0.00 0.00 0.00 0.00 0.00 0.00 0.00 0.00 0.00 0.00 0.00 0.00 0.00 0.00
0.09 0.09 0.10 0.13 0.16 0.22 0.28 0.35 0.34 0.35 0.47 0.68 0.86 0.80 0.63 0.61 0.73 0.95 1.00 0.97 0.58 0.31 0.31 0.09 0.01 0.00 0.00 0.00 0.00 0.00 0.00 0.00 0.00 0.00 0.00 0.00 0.00 0.00 0.00 0.00 0.00 0.00 0.00 0.00 0.00 0.00 0.00
0.08 0.11 0.12 0.10 0.10 0.12 0.21 0.29 0.34 0.38 0.32 0.41 0.60 0.85 1.04 0.95 1.08 1.40 1.39 0.80 0.31 0.26 0.39 0.20 0.05 0.01 0.00 0.00 0.00 0.00 0.00 0.00 0.00 0.00 0.00 0.00 0.00 0.00 0.00 0.00 0.00 0.00 0.00 0.00 0.00 0.00 0.00
0.10 0.09 0.07 0.08 0.13 0.18 0.22 0.19 0.16 0.19 0.32 0.43 0.53 0.67 0.95 1.46 2.08 1.63 1.41 0.57 0.42 0.61 0.96 0.44 0.06 0.03 0.01 0.00 0.00 0.00 0.00 0.00 0.00 0.00 0.00 0.00 0.00 0.00 0.00 0.00 0.00 0.00 0.00 0.00 0.00 0.00 0.00
0.10 0.13 0.17 0.20 0.18 0.14 0.12 0.15 0.16 0.14 0.17 0.27 0.48 0.81 1.16 1.62 1.61 1.27 0.85 0.44 0.83 1.66 2.34 0.62 0.03 0.00 0.00 0.01 0.01 0.00 0.00 0.00 0.00 0.00 0.00 0.00 0.00 0.00 0.00 0.00 0.00 0.00 0.00 0.00 0.00 0.00 0.00
0.20 0.18 0.23 0.25 0.16 0.13 0.13 0.13 0.14 0.14 0.17 0.25 0.34 0.69 1.36 1.57 1.58 0.86 0.39 0.73 2.02 4.08 3.60 0.57 0.02 0.01 0.01 0.00 0.00 0.00 0.00 0.00 0.00 0.00 0.00 0.00 0.00 0.00 0.00 0.00 0.00 0.00 0.00 0.00 0.00 0.00 0.00
0.08 0.11 0.17 0.17 0.18 0.24 0.18 0.16 0.12 0.12 0.16 0.22 0.34 0.67 1.22 1.21 1.62 1.09 1.11 2.17 4.37 5.13 2.28 0.37 0.03 0.01 0.00 0.00 0.00 0.00 0.00 0.00 0.02 0.03 0.03 0.00 0.00 0.00 0.00 0.00 0.00 0.00 0.00 0.01 0.02 0.01 0.00
0.08 0.09 0.08 0.10 0.14 0.14 0.12 0.12 0.12 0.13 0.15 0.20 0.36 0.71 1.08 1.07 1.03 1.40 2.04 3.43 4.73 3.21 1.13 0.16 0.03 0.03 0.01 0.00 0.00 0.00 0.00 0.01 0.01 0.00 0.00 0.00 0.00 0.00 0.00 0.00 0.00 0.00 0.00 0.01 0.02 0.00 0.00
0.11 0.09 0.06 0.04 0.05 0.06 0.09 0.07 0.08 0.11 0.16 0.16 0.44 0.77 1.21 1.63 1.74 2.13 3.07 4.77 4.07 1.63 0.33 0.07 0.04 0.13 0.09 0.02 0.01 0.01 0.01 0.02 0.00 0.00 0.00 0.00 0.00 0.00 0.00 0.00 0.00 0.00 0.00 0.00 0.01 0.05 0.06
0.14 0.10 0.10 0.07 0.07 0.07 0.07 0.06 0.09 0.19 0.20 0.36 0.54 0.93 1.44 1.50 1.87 2.46 3.22 3.91 2.54 0.70 0.11 0.06 0.15 0.14 0.15 0.05 0.04 0.04 0.03 0.01 0.00 0.00 0.00 0.00 0.00 0.00 0.00 0.00 0.00 0.00 0.00 0.01 0.12 0.15 0.07
0.12 0.10 0.10 0.11 0.10 0.07 0.06 0.06 0.07 0.15 0.23 0.57 0.65 1.07 1.13 1.16 1.93 2.89 3.55 3.03 1.75 0.49 0.24 0.24 0.16 0.23 0.12 0.11 0.19 0.08 0.03 0.00 0.00 0.00 0.00 0.00 0.02 0.01 0.00 0.00 0.00 0.00 0.00 0.00 0.02 0.01 0.00
0.07 0.10 0.17 0.14 0.13 0.10 0.09 0.09 0.13 0.17 0.47 0.90 0.89 1.15 0.91 1.12 2.24 2.98 2.90 2.14 1.13 0.43 0.45 0.62 0.43 0.22 0.19 0.19 0.22 0.28 0.21 0.03 0.00 0.00 0.00 0.00 0.06 0.05 0.01 0.00 0.00 0.01 0.00 0.00 0.01 0.00 0.00
0.10 0.15 0.24 0.23 0.30 0.36 0.20 0.15 0.21 0.34 0.68 0.79 1.20 0.93 1.01 1.28 1.82 1.99 1.82 1.69 1.04 0.48 0.45 0.79 0.60 0.28 0.23 0.18 0.45 0.27 0.16 0.11 0.02 0.03 0.02 0.02 0.20 0.31 0.33 0.15 0.05 0.05 0.01 0.01 0.01 0.00 0.00
0.16 0.22 0.33 0.35 0.55 1.06 0.83 0.28 0.22 0.31 0.69 1.02 1.36 1.32 1.53 1.83 1.35 1.03 0.96 1.07 0.94 0.53 0.27 0.42 0.46 0.23 0.33 0.56 0.52 0.40 0.20 0.15 0.03 0.03 0.02 0.05 0.07 0.13 0.16 0.09 0.04 0.02 0.01 0.02 0.04 0.03 0.01
0.16 0.22 0.38 0.49 0.84 1.32 1.62 1.12 0.66 0.64 0.91 1.67 2.00 1.24 0.85 1.19 1.21 0.94 0.62 0.61 0.42 0.49 0.48 0.29 0.45 0.34 0.30 0.75 0.84 0.47 0.18 0.10 0.06 0.04 0.06 0.10 0.33 0.18 0.11 0.04 0.03 0.01 0.00 0.01 0.05 0.01 0.02
0.13 0.20 0.42 0.76 0.94 0.87 1.20 1.40 1.14 0.85 1.35 2.10 1.81 0.98 0.49 0.18 0.25 0.39 0.50 0.64 0.28 0.28 0.43 0.34 0.26 0.25 0.24 0.38 0.36 0.50 0.31 0.17 0.16 0.08 0.13 0.30 0.70 0.22 0.18 0.13 0.12 0.06 0.02 0.03 0.02 0.01 0.02
0.07 0.12 0.43 0.78 0.86 0.67 1.09 1.36 1.22 0.92 1.27 1.93 0.96 0.39 0.46 0.47 0.21 0.24 0.34 0.37 0.24 0.17 0.31 0.18 0.12 0.18 0.30 0.28 0.18 0.23 0.31 0.46 0.37 0.22 0.22 0.40 0.83 0.70 0.58 0.27 0.25 0.41 0.12 0.01 0.00 0.00 0.01
0.10 0.07 0.21 0.57 0.72 0.76 1.06 1.35 1.39 1.03 1.04 1.09 0.62 0.31 0.74 0.90 0.38 0.31 0.18 0.12 0.14 0.11 0.21 0.31 0.23 0.26 0.44 0.33 0.42 0.62 0.78 0.86 0.85 0.85 0.50 0.57 0.65 1.06 1.08 0.54 0.79 0.70 0.06 0.00 0.00 0.00 0.00
0.07 0.06 0.13 0.30 0.61 0.76 0.96 1.10 1.41 1.42 1.09 1.10 0.84 0.46 0.65 0.90 0.47 0.32 0.21 0.24 0.24 0.24 0.28 0.31 0.28 0.26 0.34 0.27 0.59 1.32 1.47 1.32 1.27 1.04 0.97 0.81 0.70 1.13 1.04 0.81 0.60 0.13 0.00 0.00 0.00 0.00 0.00
0.05 0.07 0.14 0.13 0.28 0.47 0.75 0.86 1.03 1.41 1.30 1.24 1.10 0.55 0.56 0.95 0.59 0.25 0.22 0.16 0.29 0.47 0.74 0.58 0.34 0.34 0.36 0.62 1.06 1.22 1.01 0.73 0.65 0.72 0.61 0.67 0.88 1.12 1.38 0.89 0.49 0.04 0.00 0.00 0.03 0.20 0.01
0.05 0.06 0.03 0.03 0.11 0.28 0.57 0.70 0.78 1.05 1.02 1.34 1.28 0.54 0.76 1.20 0.62 0.21 0.32 0.36 0.24 0.23 0.50 0.55 0.64 0.72 0.57 0.77 1.14 1.07 0.71 0.32 0.26 0.24 0.50 0.68 0.83 0.99 0.94 0.74 0.26 0.00 0.00 0.00 0.15 0.15 0.00
0.04 0.02 0.02 0.02 0.05 0.14 0.39 0.52 0.58 0.61 0.74 0.96 1.39 0.51 1.13 1.51 0.89 0.30 0.16 0.17 0.17 0.19 0.37 0.46 0.42 0.59 0.67 0.63 0.75 0.71 0.58 0.35 0.19 0.12 0.15 0.36 0.60 0.68 0.63 0.47 0.16 0.01 0.00 0.00 0.01 0.00 0.00
0.01 0.01 0.01 0.02 0.04 0.09 0.24 0.38 0.43 0.44 0.62 0.58 1.12 0.74 1.15 1.77 1.26 0.29 0.19 0.10 0.05 0.07 0.07 0.15 0.20 0.21 0.25 0.39 0.35 0.36 0.25 0.20 0.16 0.20 0.09 0.11 0.25 0.43 0.46 0.29 0.04 0.00 0.00 0.01 0.01 0.00 0.00

GFSGBSN_prec_precacc24_216.txt.gz
Total_Precipitation_Accumulation
0.04 0.03 0.02 0.02 0.03 0.08 0.12 0.12 0.14 0.12 0.11 0.08 0.06 0.05 0.03 0.02 0.03 0.03 0.02 0.01 0.01 0.01 0.01 0.01 0.00 0.00 0.00 0.00 0.00 0.00 0.00 0.00 0.00 0.00 0.00 0.00 0.00 0.00 0.00 0.00 0.00 0.00 0.00 0.00 0.00 0.00 0.00
0.04 0.02 0.03 0.03 0.04 0.07 0.14 0.18 0.17 0.20 0.16 0.11 0.08 0.06 0.06 0.04 0.03 0.04 0.04 0.03 0.02 0.02 0.02 0.04 0.05 0.04 0.00 0.00 0.00 0.00 0.00 0.00 0.00 0.00 0.00 0.00 0.00 0.00 0.00 0.00 0.00 0.00 0.00 0.00 0.00 0.00 0.00
0.03 0.03 0.03 0.03 0.04 0.04 0.08 0.18 0.22 0.25 0.29 0.29 0.23 0.17 0.12 0.11 0.08 0.06 0.05 0.03 0.04 0.08 0.10 0.12 0.13 0.07 0.01 0.00 0.00 0.00 0.00 0.00 0.00 0.00 0.00 0.00 0.00 0.00 0.00 0.00 0.00 0.00 0.00 0.00 0.00 0.00 0.00
0.03 0.03 0.03 0.03 0.03 0.04 0.04 0.10 0.20 0.24 0.31 0.28 0.28 0.24 0.24 0.19 0.17 0.15 0.10 0.08 0.08 0.08 0.14 0.26 0.31 0.17 0.06 0.00 0.00 0.00 0.00 0.00 0.00 0.00 0.00 0.00 0.00 0.00 0.00 0.00 0.00 0.00 0.00 0.00 0.00 0.00 0.00
0.04 0.04 0.05 0.05 0.04 0.04 0.04 0.07 0.16 0.28 0.30 0.35 0.37 0.40 0.27 0.26 0.22 0.20 0.19 0.15 0.14 0.20 0.29 0.30 0.40 0.29 0.06 0.00 0.00 0.00 0.00 0.00 0.00 0.00 0.00 0.00 0.00 0.00 0.00 0.00 0.00 0.00 0.00 0.00 0.00 0.00 0.00
0.06 0.07 0.07 0.07 0.08 0.06 0.05 0.04 0.07 0.16 0.29 0.36 0.40 0.43 0.49 0.39 0.33 0.29 0.28 0.32 0.33 0.47 0.59 0.64 0.46 0.19 0.02 0.00 0.00 0.00 0.00 0.00 0.00 0.00 0.00 0.00 0.00 0.00 0.00 0.00 0.00 0.00 0.00 0.00 0.00 0.00 0.00
0.08 0.08 0.09 0.08 0.09 0.10 0.11 0.13 0.16 0.18 0.22 0.31 0.40 0.39 0.43 0.49 0.56 0.57 0.63 0.85 0.94 0.88 0.68 0.33 0.17 0.05 0.00 0.00 0.00 0.00 0.00 0.00 0.00 0.00 0.00 0.00 0.00 0.00 0.00 0.00 0.00 0.00 0.00 0.00 0.00 0.00 0.00
0.07 0.08 0.09 0.10 0.09 0.10 0.11 0.16 0.19 0.18 0.18 0.23 0.36 0.49 0.51 0.57 0.73 0.95 1.00 0.97 0.58 0.31 0.32 0.09 0.01 0.00 0.00 0.00 0.00 0.00 0.00 0.00 0.00 0.00 0.00 0.00 0.00 0.00 0.00 0.00 0.00 0.00 0.00 0.00 0.00 0.00 0.00
0.06 0.09 0.10 0.08 0.08 0.10 0.16 0.19 0.21 0.16 0.13 0.19 0.33 0.43 0.56 0.70 1.00 1.39 1.39 0.80 0.31 0.26 0.40 0.20 0.05 0.01 0.00 0.00 0.00 0.00 0.00 0.00 0.00 0.00 0.00 0.00 0.00 0.00 0.00 0.00 0.00 0.00 0.00 0.00 0.00 0.00 0.00
0.08 0.08 0.07 0.08 0.14 0.16 0.14 0.13 0.16 0.09 0.09 0.16 0.25 0.39 0.41 0.72 1.60 1.57 1.43 0.58 0.42 0.62 0.90 0.38 0.06 0.03 0.01 0.00 0.01 0.00 0.00 0.00 0.00 0.00 0.00 0.00 0.00 0.00 0.00 0.00 0.00 0.00 0.00 0.00 0.00 0.00 0.00
0.09 0.12 0.17 0.20 0.19 0.14 0.09 0.06 0.08 0.09 0.09 0.12 0.20 0.32 0.42 0.77 1.12 1.17 0.88 0.44 0.82 1.65 1.93 0.39 0.02 0.00 0.00 0.01 0.01 0.00 0.00 0.00 0.00 0.00 0.00 0.00 0.00 0.00 0.00 0.00 0.00 0.00 0.00 0.00 0.00 0.00 0.00
0.19 0.18 0.23 0.26 0.17 0.14 0.13 0.11 0.09 0.08 0.09 0.14 0.13 0.15 0.36 0.69 1.00 0.63 0.35 0.68 1.88 3.58 2.51 0.24 0.01 0.01 0.01 0.00 0.00 0.00 0.00 0.00 0.00 0.00 0.00 0.00 0.00 0.00 0.00 0.00 0.00 0.00 0.00 0.00 0.00 0.00 0.00
0.08 0.11 0.18 0.17 0.20 0.28 0.21 0.18 0.13 0.10 0.13 0.11 0.10 0.14 0.27 0.49 0.79 0.65 0.78 1.78 3.57 3.81 1.51 0.24 0.03 0.01 0.01 0.01 0.00 0.00 0.01 0.01 0.03 0.06 0.07 0.00 0.00 0.00 0.00 0.00 0.00 0.00 0.00 0.02 0.03 0.01 0.00
0.08 0.09 0.09 0.11 0.16 0.17 0.16 0.16 0.14 0.13 0.14 0.15 0.17 0.22 0.29 0.41 0.43 0.90 1.72 2.97 3.34 2.05 0.80 0.16 0.05 0.05 0.05 0.03 0.01 0.01 0.01 0.02 0.03 0.01 0.01 0.00 0.00 0.00 0.00 0.00 0.00 0.00 0.00 0.02 0.05 0.01 0.00
0.11 0.09 0.05 0.04 0.06 0.06 0.13 0.17 0.13 0.14 0.17 0.16 0.19 0.17 0.29 0.34 0.59 1.17 2.46 3.58 2.63 1.03 0.25 0.07 0.05 0.19 0.20 0.10 0.05 0.05 0.03 0.03 0.02 0.03 0.02 0.00 0.00 0.00 0.00 0.00 0.00 0.00 0.00 0.00 0.02 0.06 0.09
0.14 0.10 0.08 0.06 0.06 0.08 0.07 0.10 0.20 0.23 0.22 0.31 0.24 0.19 0.18 0.19 0.62 1.44 2.43 2.66 1.63 0.48 0.10 0.06 0.17 0.17 0.17 0.17 0.25 0.23 0.19 0.06 0.01 0.00 0.02 0.01 0.02 0.00 0.00 0.00 0.00 0.00 0.00 0.02 0.14 0.24 0.12
0.12 0.10 0.08 0.07 0.06 0.04 0.03 0.04 0.14 0.28 0.23 0.42 0.38 0.32 0.14 0.19 0.66 1.78 2.19 1.70 0.91 0.23 0.17 0.21 0.14 0.25 0.16 0.19 0.43 0.48 0.35 0.16 0.07 0.02 0.01 0.04 0.10 0.03 0.01 0.00 0.00 0.00 0.00 0.00 0.04 0.04 0.04
0.06 0.07 0.07 0.06 0.06 0.05 0.05 0.05 0.08 0.23 0.45 0.63 0.55 0.49 0.25 0.24 0.76 1.43 1.54 1.06 0.46 0.09 0.14 0.35 0.27 0.18 0.19 0.20 0.27 0.39 0.45 0.31 0.25 0.12 0.06 0.05 0.20 0.13 0.01 0.00 0.00 0.01 0.00 0.01 0.08 0.10 0.05
0.09 0.08 0.07 0.09 0.11 0.10 0.09 0.09 0.16 0.24 0.53 0.60 0.63 0.31 0.27 0.64 0.78 0.83 0.84 0.79 0.34 0.06 0.09 0.48 0.41 0.20 0.18 0.15 0.49 0.27 0.15 0.19 0.25 0.36 0.35 0.24 0.44 0.43 0.26 0.15 0.05 0.05 0.02 0.01 0.02 0.04 0.03
0.14 0.13 0.14 0.15 0.13 0.14 0.17 0.20 0.22 0.31 0.57 0.84 0.74 0.48 0.33 0.52 0.47 0.47 0.58 0.63 0.46 0.13 0.04 0.21 0.29 0.13 0.22 0.35 0.36 0.35 0.16 0.11 0.04 0.14 0.22 0.46 0.31 0.28 0.19 0.10 0.04 0.03 0.02 0.02 0.07 0.16 0.07
0.13 0.12 0.14 0.14 0.14 0.14 0.18 0.24 0.28 0.45 0.78 1.32 1.46 0.58 0.20 0.34 0.33 0.34 0.44 0.45 0.29 0.23 0.17 0.09 0.22 0.20 0.19 0.44 0.51 0.29 0.10 0.03 0.02 0.04 0.13 0.47 0.56 0.24 0.11 0.04 0.03 0.01 0.01 0.01 0.06 0.05 0.17
0.10 0.11 0.11 0.09 0.11 0.09 0.09 0.20 0.33 0.47 1.11 1.73 1.25 0.45 0.24 0.12 0.16 0.26 0.33 0.37 0.16 0.11 0.21 0.15 0.18 0.13 0.16 0.26 0.26 0.38 0.26 0.13 0.11 0.08 0.25 0.57 0.79 0.26 0.25 0.14 0.13 0.11 0.03 0.04 0.03 0.01 0.03
0.06 0.08 0.09 0.09 0.09 0.07 0.17 0.26 0.35 0.49 1.09 1.60 0.67 0.27 0.45 0.36 0.16 0.22 0.27 0.27 0.12 0.08 0.07 0.06 0.06 0.09 0.13 0.14 0.13 0.19 0.27 0.39 0.33 0.22 0.26 0.56 0.98 0.79 0.68 0.29 0.34 0.56 0.15 0.02 0.02 0.00 0.01
0.08 0.07 0.08 0.10 0.12 0.18 0.31 0.40 0.44 0.51 0.84 0.91 0.39 0.21 0.69 0.62 0.16 0.11 0.08 0.10 0.07 0.07 0.07 0.06 0.06 0.09 0.13 0.16 0.26 0.43 0.62 0.74 0.76 0.78 0.49 0.65 0.78 1.28 1.24 0.60 0.98 0.75 0.06 0.00 0.00 0.00 0.00
0.06 0.06 0.10 0.14 0.22 0.26 0.38 0.48 0.60 0.73 0.75 0.93 0.71 0.36 0.49 0.53 0.13 0.03 0.03 0.04 0.03 0.03 0.05 0.03 0.02 0.08 0.16 0.25 0.67 1.22 1.36 1.25 1.20 1.01 0.96 0.82 0.74 1.27 1.16 0.90 0.68 0.13 0.00 0.00 0.01 0.01 0.00
0.04 0.06 0.13 0.09 0.08 0.15 0.31 0.44 0.56 0.85 0.85 0.99 0.93 0.49 0.57 0.88 0.28 0.05 0.03 0.02 0.07 0.14 0.26 0.16 0.09 0.19 0.31 0.74 1.16 1.27 0.98 0.73 0.64 0.72 0.61 0.69 0.89 1.20 1.45 0.97 0.57 0.05 0.00 0.00 0.04 0.24 0.01
0.05 0.06 0.02 0.02 0.04 0.13 0.32 0.46 0.57 0.80 0.76 1.10 1.05 0.50 0.77 1.15 0.25 0.06 0.11 0.05 0.04 0.11 0.35 0.34 0.46 0.66 0.64 1.11 1.35 1.13 0.74 0.33 0.27 0.25 0.51 0.71 0.89 1.11 1.01 0.79 0.29 0.00 0.00 0.01 0.22 0.24 0.00
0.04 0.02 0.02 0.01 0.03 0.10 0.30 0.40 0.48 0.51 0.63 0.90 1.22 0.46 1.25 1.49 0.51 0.05 0.04 0.05 0.07 0.20 0.44 0.38 0.54 0.74 0.86 0.89 0.90 0.80 0.64 0.37 0.22 0.12 0.16 0.42 0.72 0.83 0.74 0.63 0.24 0.01 0.01 0.06 0.06 0.01 0.01
0.01 0.01 0.01 0.01 0.03 0.08 0.23 0.35 0.39 0.41 0.59 0.62 1.11 0.72 1.33 2.05 1.29 0.14 0.05 0.03 0.03 0.11 0.19 0.38 0.43 0.33 0.38 0.52 0.44 0.42 0.31 0.23 0.18 0.22 0.11 0.14 0.33 0.62 0.68 0.47 0.11 0.01 0.02 0.06 0.11 0.12 0.10

GFSGBSN_prec_precacc24_219.txt.gz
Total_Precipitation_Accumulation
0.04 0.02 0.02 0.02 0.02 0.02 0.02 0.02 0.04 0.06 0.08 0.07 0.06 0.05 0.03 0.02 0.03 0.03 0.02 0.01 0.01 0.01 0.01 0.01 0.02 0.01 0.01 0.00 0.00 0.00 0.00 0.00 0.00 0.00 0.00 0.00 0.00 0.00 0.00 0.00 0.00 0.00 0.00 0.00 0.00 0.00 0.00
0.04 0.02 0.02 0.03 0.04 0.04 0.03 0.03 0.03 0.05 0.06 0.07 0.07 0.07 0.07 0.05 0.03 0.04 0.04 0.03 0.02 0.02 0.02 0.04 0.05 0.06 0.04 0.01 0.00 0.00 0.00 0.00 0.00 0.00 0.00 0.00 0.00 0.00 0.00 0.00 0.00 0.00 0.00 0.00 0.00 0.00 0.00
0.03 0.03 0.03 0.03 0.03 0.03 0.03 0.04 0.03 0.03 0.05 0.09 0.12 0.15 0.13 0.13 0.09 0.06 0.05 0.03 0.04 0.08 0.10 0.12 0.13 0.08 0.04 0.00 0.00 0.00 0.00 0.00 0.00 0.00 0.00 0.00 0.00 0.00 0.00 0.00 0.00 0.00 0.00 0.00 0.00 0.00 0.00
0.03 0.02 0.03 0.03 0.02 0.03 0.03 0.03 0.03 0.03 0.04 0.09 0.13 0.17 0.22 0.20 0.18 0.16 0.10 0.08 0.08 0.08 0.14 0.26 0.31 0.17 0.07 0.00 0.00 0.00 0.00 0.00 0.00 0.00 0.00 0.00 0.00 0.00 0.00 0.00 0.00 0.00 0.00 0.00 0.00 0.00 0.00
0.04 0.04 0.04 0.04 0.04 0.04 0.04 0.04 0.04 0.04 0.05 0.07 0.16 0.21 0.22 0.24 0.22 0.20 0.19 0.15 0.14 0.20 0.29 0.30 0.40 0.29 0.06 0.00 0.00 0.00 0.00 0.00 0.00 0.00 0.00 0.00 0.00 0.00 0.00 0.00 0.00 0.00 0.00 0.00 0.00 0.00 0.00
0.05 0.05 0.05 0.06 0.07 0.06 0.05 0.04 0.05 0.06 0.07 0.07 0.11 0.20 0.30 0.29 0.30 0.29 0.28 0.32 0.33 0.47 0.59 0.64 0.46 0.19 0.02 0.00 0.00 0.00 0.00 0.00 0.00 0.00 0.00 0.00 0.00 0.00 0.00 0.00 0.00 0.00 0.00 0.00 0.00 0.00 0.00
0.06 0.06 0.07 0.07 0.07 0.10 0.11 0.13 0.16 0.15 0.11 0.10 0.12 0.14 0.19 0.32 0.41 0.53 0.64 0.84 0.93 0.88 0.68 0.33 0.17 0.05 0.00 0.00 0.00 0.00 0.00 0.00 0.00 0.00 0.00 0.00 0.00 0.00 0.00 0.00 0.00 0.00 0.00 0.00 0.00 0.00 0.00
0.07 0.07 0.07 0.07 0.07 0.08 0.10 0.16 0.19 0.17 0.11 0.11 0.16 0.16 0.16 0.25 0.42 0.78 0.99 0.97 0.59 0.31 0.32 0.09 0.01 0.00 0.00 0.00 0.00 0.00 0.00 0.00 0.00 0.00 0.00 0.00 0.00 0.00 0.00 0.00 0.00 0.00 0.00 0.00 0.00 0.00 0.00
0.06 0.09 0.09 0.07 0.07 0.09 0.15 0.19 0.20 0.16 0.11 0.15 0.18 0.18 0.17 0.23 0.35 0.87 1.28 0.80 0.31 0.26 0.41 0.20 0.05 0.01 0.00 0.00 0.00 0.00 0.00 0.00 0.00 0.00 0.00 0.00 0.00 0.00 0.00 0.00 0.00 0.00 0.00 0.00 0.00 0.00 0.00
0.08 0.07 0.07 0.08 0.14 0.16 0.14 0.13 0.16 0.09 0.08 0.11 0.14 0.23 0.20 0.20 0.47 0.67 1.07 0.58 0.44 0.62 0.89 0.38 0.06 0.03 0.01 0.00 0.01 0.00 0.00 0.00 0.02 0.01 0.01 0.01 0.00 0.00 0.00 0.00 0.00 0.00 0.00 0.00 0.00 0.00 0.00
0.09 0.12 0.17 0.20 0.19 0.14 0.09 0.06 0.08 0.09 0.09 0.10 0.08 0.10 0.18 0.36 0.44 0.55 0.57 0.44 0.83 1.61 1.80 0.37 0.02 0.00 0.00 0.01 0.01 0.00 0.00 0.00 0.01 0.01 0.06 0.02 0.00 0.00 0.00 0.00 0.00 0.00 0.00 0.00 0.00 0.00 0.00
0.18 0.17 0.23 0.26 0.17 0.14 0.12 0.11 0.08 0.08 0.09 0.14 0.10 0.05 0.08 0.22 0.39 0.26 0.26 0.58 1.68 3.07 2.22 0.23 0.01 0.01 0.01 0.00 0.00 0.00 0.00 0.00 0.00 0.01 0.04 0.01 0.00 0.00 0.00 0.00 0.00 0.00 0.00 0.00 0.00 0.00 0.00
0.09 0.11 0.18 0.18 0.20 0.28 0.21 0.18 0.13 0.10 0.13 0.11 0.09 0.07 0.07 0.14 0.31 0.34 0.34 1.06 2.55 2.90 1.33 0.24 0.03 0.01 0.01 0.01 0.00 0.00 0.01 0.01 0.03 0.07 0.09 0.01 0.00 0.00 0.00 0.00 0.00 0.00 0.00 0.02 0.03 0.01 0.00
0.09 0.09 0.08 0.11 0.16 0.17 0.15 0.17 0.14 0.13 0.14 0.15 0.16 0.16 0.08 0.10 0.13 0.56 1.08 1.90 2.24 1.40 0.71 0.16 0.05 0.06 0.05 0.03 0.01 0.01 0.01 0.02 0.04 0.02 0.02 0.01 0.00 0.00 0.00 0.00 0.00 0.00 0.00 0.02 0.05 0.01 0.00
0.09 0.08 0.05 0.04 0.06 0.06 0.13 0.17 0.13 0.13 0.17 0.15 0.18 0.11 0.13 0.10 0.20 0.60 1.62 2.34 1.73 0.73 0.23 0.07 0.05 0.20 0.21 0.17 0.07 0.06 0.04 0.04 0.02 0.04 0.08 0.05 0.01 0.00 0.00 0.00 0.00 0.00 0.00 0.00 0.02 0.05 0.10
0.14 0.10 0.08 0.05 0.06 0.08 0.07 0.10 0.20 0.22 0.20 0.29 0.22 0.19 0.07 0.10 0.28 0.62 1.68 1.68 1.03 0.39 0.10 0.06 0.17 0.17 0.17 0.19 0.28 0.26 0.26 0.21 0.05 0.00 0.06 0.14 0.09 0.00 0.00 0.00 0.00 0.00 0.00 0.03 0.14 0.26 0.13
0.12 0.09 0.07 0.07 0.06 0.04 0.03 0.03 0.13 0.28 0.21 0.38 0.33 0.28 0.11 0.18 0.34 0.78 1.23 0.92 0.50 0.18 0.17 0.22 0.14 0.25 0.16 0.19 0.43 0.50 0.40 0.24 0.20 0.05 0.03 0.10 0.27 0.15 0.01 0.00 0.00 0.00 0.00 0.00 0.05 0.06 0.05
0.06 0.07 0.06 0.05 0.05 0.04 0.04 0.04 0.07 0.22 0.42 0.57 0.47 0.39 0.30 0.30 0.31 0.59 0.63 0.50 0.27 0.06 0.14 0.31 0.25 0.18 0.19 0.20 0.27 0.39 0.46 0.35 0.27 0.19 0.15 0.15 0.29 0.17 0.02 0.00 0.00 0.01 0.00 0.01 0.08 0.11 0.06
0.08 0.07 0.06 0.07 0.09 0.08 0.08 0.08 0.15 0.22 0.49 0.54 0.54 0.27 0.29 0.67 0.48 0.26 0.28 0.30 0.19 0.04 0.09 0.41 0.31 0.20 0.18 0.15 0.47 0.27 0.16 0.20 0.29 0.43 0.43 0.30 0.54 0.44 0.19 0.11 0.06 0.05 0.02 0.01 0.03 0.12 0.10
0.13 0.12 0.12 0.14 0.12 0.12 0.14 0.17 0.19 0.28 0.51 0.69 0.64 0.44 0.29 0.34 0.30 0.22 0.29 0.28 0.25 0.07 0.03 0.20 0.26 0.12 0.23 0.33 0.29 0.30 0.15 0.11 0.05 0.15 0.24 0.49 0.36 0.35 0.23 0.12 0.11 0.06 0.02 0.02 0.09 0.25 0.29
0.12 0.11 0.12 0.14 0.11 0.10 0.12 0.15 0.18 0.35 0.65 1.11 1.22 0.48 0.16 0.17 0.11 0.13 0.26 0.26 0.17 0.17 0.14 0.09 0.22 0.20 0.18 0.39 0.43 0.23 0.08 0.04 0.03 0.04 0.16 0.51 0.61 0.24 0.10 0.01 0.01 0.02 0.00 0.01 0.07 0.11 0.21
0.07 0.10 0.10 0.08 0.08 0.06 0.04 0.10 0.20 0.35 0.87 1.41 0.98 0.33 0.21 0.11 0.10 0.15 0.24 0.24 0.11 0.09 0.20 0.14 0.20 0.14 0.16 0.26 0.25 0.35 0.25 0.14 0.13 0.10 0.29 0.61 0.76 0.21 0.16 0.02 0.04 0.08 0.02 0.03 0.02 0.01 0.03
0.04 0.07 0.09 0.08 0.06 0.04 0.07 0.16 0.23 0.38 0.92 1.16 0.51 0.23 0.48 0.35 0.16 0.18 0.22 0.22 0.12 0.13 0.12 0.08 0.08 0.12 0.14 0.14 0.12 0.15 0.25 0.37 0.33 0.25 0.29 0.62 0.94 0.67 0.54 0.16 0.21 0.49 0.14 0.01 0.02 0.00 0.01
0.07 0.06 0.08 0.10 0.10 0.12 0.16 0.22 0.22 0.38 0.79 0.76 0.36 0.24 0.71 0.52 0.15 0.09 0.06 0.10 0.08 0.09 0.10 0.08 0.09 0.13 0.03 0.05 0.14 0.22 0.39 0.53 0.57 0.62 0.42 0.58 0.69 1.17 1.12 0.49 0.90 0.73 0.06 0.00 0.00 0.00 0.00
0.05 0.05 0.10 0.14 0.19 0.17 0.18 0.23 0.27 0.39 0.69 0.94 0.74 0.42 0.58 0.52 0.07 0.03 0.03 0.04 0.02 0.02 0.04 0.03 0.02 0.05 0.07 0.24 0.55 0.87 0.90 0.83 0.80 0.71 0.79 0.74 0.67 1.18 1.10 0.86 0.67 0.13 0.00 0.00 0.01 0.01 0.00
0.02 0.06 0.13 0.09 0.05 0.05 0.11 0.15 0.23 0.43 0.59 0.94 0.95 0.56 0.67 1.05 0.29 0.03 0.04 0.03 0.05 0.07 0.11 0.07 0.02 0.05 0.20 0.60 0.91 1.00 0.75 0.56 0.48 0.55 0.49 0.65 0.88 1.20 1.45 0.98 0.56 0.05 0.00 0.00 0.04 0.25 0.01
0.03 0.06 0.02 0.02 0.03 0.05 0.15 0.24 0.31 0.48 0.50 0.92 1.02 0.52 0.84 1.20 0.25 0.05 0.08 0.06 0.04 0.10 0.25 0.16 0.14 0.32 0.48 1.06 1.23 0.94 0.58 0.27 0.22 0.20 0.42 0.64 0.86 1.14 1.05 0.84 0.30 0.00 0.00 0.01 0.22 0.26 0.00
0.04 0.02 0.02 0.01 0.03 0.07 0.19 0.24 0.29 0.35 0.44 0.76 1.06 0.44 1.30 1.51 0.46 0.05 0.03 0.05 0.05 0.18 0.37 0.24 0.50 0.63 0.78 0.86 0.86 0.71 0.58 0.31 0.18 0.10 0.15 0.40 0.70 0.82 0.74 0.68 0.29 0.01 0.01 0.06 0.06 0.01 0.01
0.01 0.01 0.01 0.01 0.03 0.07 0.16 0.22 0.21 0.25 0.46 0.53 0.94 0.63 1.31 2.03 1.17 0.08 0.02 0.01 0.02 0.11 0.19 0.37 0.48 0.33 0.42 0.60 0.46 0.47 0.33 0.22 0.16 0.17 0.09 0.13 0.33 0.63 0.72 0.50 0.11 0.01 0.02 0.07 0.12 0.12 0.10

GFSGBSN_prec_precacc24_225.txt.gz
Total_Precipitation_Accumulation
0.05 0.03 0.02 0.02 0.01 0.02 0.02 0.02 0.02 0.02 0.01 0.00 0.00 0.01 0.01 0.01 0.03 0.03 0.02 0.01 0.01 0.01 0.01 0.01 0.02 0.02 0.03 0.02 0.00 0.00 0.00 0.00 0.00 0.00 0.00 0.00 0.00 0.00 0.00 0.00 0.00 0.00 0.00 0.00 0.00 0.00 0.00
0.03 0.02 0.02 0.03 0.04 0.04 0.03 0.02 0.02 0.02 0.01 0.01 0.01 0.01 0.01 0.01 0.02 0.03 0.04 0.03 0.02 0.02 0.02 0.04 0.05 0.06 0.06 0.03 0.00 0.00 0.00 0.00 0.00 0.00 0.00 0.00 0.00 0.00 0.00 0.00 0.00 0.00 0.00 0.00 0.00 0.00 0.00
0.02 0.02 0.02 0.02 0.03 0.03 0.03 0.03 0.03 0.02 0.02 0.02 0.01 0.02 0.01 0.01 0.02 0.03 0.04 0.04 0.05 0.08 0.10 0.12 0.13 0.09 0.04 0.00 0.00 0.00 0.00 0.00 0.00 0.00 0.00 0.00 0.00 0.00 0.00 0.00 0.00 0.00 0.00 0.00 0.00 0.00 0.00
0.01 0.02 0.02 0.02 0.02 0.02 0.03 0.03 0.03 0.03 0.03 0.02 0.02 0.02 0.02 0.02 0.01 0.01 0.02 0.05 0.07 0.08 0.14 0.26 0.31 0.18 0.07 0.00 0.00 0.00 0.00 0.00 0.00 0.00 0.00 0.00 0.00 0.00 0.00 0.00 0.00 0.00 0.00 0.00 0.00 0.00 0.00
0.02 0.02 0.03 0.03 0.03 0.04 0.04 0.04 0.04 0.04 0.04 0.04 0.05 0.04 0.03 0.02 0.02 0.01 0.02 0.03 0.08 0.20 0.29 0.30 0.40 0.29 0.06 0.00 0.00 0.00 0.00 0.00 0.00 0.00 0.00 0.00 0.00 0.00 0.00 0.00 0.00 0.00 0.00 0.00 0.00 0.00 0.00
0.02 0.03 0.04 0.05 0.06 0.05 0.04 0.04 0.05 0.07 0.07 0.06 0.07 0.07 0.06 0.06 0.04 0.03 0.02 0.02 0.07 0.36 0.56 0.62 0.45 0.19 0.02 0.00 0.00 0.00 0.00 0.00 0.00 0.00 0.00 0.00 0.00 0.00 0.00 0.00 0.00 0.00 0.00 0.00 0.00 0.00 0.00
0.02 0.03 0.05 0.06 0.07 0.08 0.08 0.10 0.13 0.13 0.11 0.09 0.11 0.10 0.09 0.09 0.06 0.08 0.03 0.06 0.11 0.43 0.60 0.32 0.16 0.05 0.00 0.00 0.00 0.00 0.00 0.00 0.00 0.00 0.00 0.00 0.00 0.00 0.00 0.00 0.00 0.00 0.00 0.00 0.00 0.00 0.00
0.03 0.04 0.06 0.07 0.07 0.08 0.08 0.13 0.15 0.15 0.10 0.11 0.16 0.15 0.10 0.06 0.03 0.07 0.07 0.09 0.09 0.21 0.33 0.08 0.01 0.00 0.00 0.00 0.00 0.00 0.00 0.01 0.00 0.00 0.01 0.01 0.00 0.00 0.00 0.00 0.00 0.00 0.00 0.00 0.00 0.00 0.00
0.03 0.04 0.08 0.07 0.07 0.08 0.14 0.17 0.18 0.15 0.11 0.15 0.18 0.18 0.14 0.12 0.07 0.03 0.07 0.13 0.11 0.12 0.31 0.17 0.05 0.01 0.00 0.00 0.00 0.00 0.00 0.00 0.01 0.00 0.01 0.01 0.00 0.00 0.00 0.00 0.00 0.00 0.00 0.00 0.00 0.00 0.00
0.03 0.02 0.04 0.08 0.14 0.15 0.13 0.13 0.15 0.09 0.07 0.11 0.14 0.23 0.18 0.13 0.19 0.12 0.12 0.10 0.14 0.21 0.35 0.23 0.06 0.03 0.01 0.00 0.01 0.00 0.00 0.00 0.03 0.01 0.03 0.07 0.00 0.00 0.00 0.00 0.00 0.00 0.00 0.00 0.00 0.00 0.00
0.04 0.05 0.11 0.17 0.17 0.13 0.08 0.05 0.08 0.09 0.09 0.10 0.08 0.09 0.14 0.22 0.21 0.46 0.29 0.16 0.40 0.62 0.45 0.10 0.02 0.00 0.00 0.01 0.01 0.00 0.00 0.00 0.01 0.02 0.17 0.05 0.00 0.00 0.00 0.00 0.00 0.00 0.00 0.00 0.00 0.00 0.00
0.12 0.13 0.19 0.21 0.14 0.11 0.11 0.10 0.08 0.08 0.09 0.13 0.10 0.06 0.07 0.09 0.24 0.21 0.09 0.16 0.55 1.04 0.66 0.12 0.01 0.01 0.01 0.00 0.00 0.00 0.00 0.00 0.00 0.03 0.12 0.02 0.00 0.00 0.00 0.00 0.00 0.00 0.00 0.00 0.00 0.00 0.00
0.06 0.08 0.16 0.16 0.18 0.27 0.20 0.17 0.12 0.09 0.12 0.11 0.09 0.07 0.06 0.04 0.22 0.19 0.04 0.16 0.47 0.79 0.42 0.16 0.03 0.01 0.01 0.01 0.00 0.00 0.01 0.01 0.03 0.08 0.13 0.03 0.00 0.01 0.01 0.01 0.00 0.00 0.01 0.03 0.03 0.02 0.00
0.06 0.05 0.05 0.09 0.15 0.16 0.13 0.14 0.10 0.09 0.11 0.13 0.15 0.15 0.07 0.05 0.06 0.15 0.14 0.47 0.56 0.21 0.21 0.13 0.05 0.06 0.08 0.04 0.01 0.01 0.01 0.03 0.04 0.02 0.05 0.03 0.01 0.01 0.00 0.01 0.01 0.01 0.02 0.05 0.06 0.01 0.00
0.08 0.08 0.04 0.04 0.05 0.04 0.11 0.16 0.11 0.12 0.15 0.14 0.15 0.11 0.12 0.08 0.16 0.24 0.26 0.58 0.39 0.12 0.10 0.06 0.05 0.19 0.26 0.19 0.07 0.06 0.12 0.15 0.12 0.09 0.21 0.17 0.04 0.00 0.00 0.00 0.03 0.03 0.06 0.01 0.06 0.03 0.07
0.09 0.06 0.05 0.03 0.04 0.05 0.05 0.08 0.18 0.20 0.18 0.25 0.17 0.16 0.07 0.10 0.25 0.31 0.39 0.28 0.12 0.11 0.09 0.06 0.16 0.16 0.17 0.20 0.28 0.26 0.31 0.34 0.22 0.08 0.15 0.26 0.21 0.01 0.00 0.00 0.01 0.04 0.03 0.10 0.16 0.34 0.26
0.08 0.07 0.05 0.04 0.04 0.02 0.02 0.02 0.11 0.26 0.17 0.28 0.23 0.21 0.11 0.19 0.29 0.30 0.21 0.07 0.02 0.02 0.16 0.22 0.13 0.24 0.16 0.19 0.44 0.50 0.41 0.26 0.28 0.08 0.08 0.16 0.34 0.16 0.01 0.01 0.00 0.00 0.03 0.07 0.15 0.18 0.13
0.04 0.05 0.04 0.04 0.04 0.03 0.02 0.01 0.03 0.16 0.33 0.42 0.33 0.27 0.31 0.34 0.23 0.15 0.04 0.01 0.01 0.00 0.09 0.28 0.24 0.16 0.18 0.20 0.27 0.40 0.46 0.35 0.27 0.20 0.21 0.23 0.32 0.18 0.02 0.00 0.00 0.02 0.05 0.12 0.45 0.39 0.25
0.07 0.06 0.05 0.06 0.06 0.05 0.06 0.06 0.10 0.16 0.35 0.38 0.36 0.22 0.24 0.52 0.35 0.12 0.05 0.02 0.02 0.01 0.02 0.22 0.26 0.19 0.16 0.13 0.46 0.27 0.16 0.20 0.30 0.44 0.44 0.31 0.50 0.36 0.16 0.11 0.06 0.18 0.24 0.20 0.24 0.40 0.36
0.07 0.07 0.08 0.10 0.08 0.08 0.09 0.11 0.13 0.17 0.37 0.45 0.34 0.28 0.22 0.27 0.17 0.15 0.16 0.11 0.03 0.00 0.01 0.03 0.14 0.12 0.21 0.26 0.22 0.29 0.15 0.11 0.05 0.16 0.26 0.50 0.36 0.35 0.22 0.12 0.11 0.09 0.07 0.14 0.33 0.44 0.46
0.07 0.07 0.08 0.12 0.09 0.07 0.08 0.11 0.12 0.25 0.47 0.55 0.51 0.24 0.12 0.14 0.09 0.05 0.13 0.15 0.07 0.05 0.06 0.05 0.09 0.16 0.19 0.29 0.32 0.18 0.08 0.04 0.02 0.05 0.22 0.54 0.61 0.24 0.10 0.01 0.01 0.02 0.00 0.01 0.13 0.19 0.31
0.04 0.07 0.08 0.06 0.05 0.02 0.01 0.06 0.14 0.24 0.55 0.54 0.39 0.17 0.14 0.10 0.09 0.13 0.14 0.11 0.05 0.02 0.08 0.05 0.14 0.09 0.16 0.25 0.22 0.33 0.25 0.15 0.15 0.11 0.34 0.65 0.80 0.25 0.17 0.01 0.02 0.08 0.02 0.02 0.02 0.01 0.04
0.03 0.05 0.07 0.05 0.04 0.02 0.03 0.09 0.10 0.22 0.51 0.37 0.17 0.11 0.36 0.31 0.14 0.16 0.15 0.14 0.09 0.11 0.10 0.07 0.09 0.17 0.17 0.16 0.15 0.16 0.23 0.31 0.31 0.25 0.28 0.62 0.94 0.66 0.48 0.04 0.14 0.36 0.11 0.01 0.02 0.00 0.02
0.06 0.05 0.06 0.07 0.06 0.07 0.10 0.11 0.09 0.23 0.45 0.31 0.18 0.19 0.45 0.36 0.13 0.08 0.05 0.07 0.06 0.08 0.10 0.07 0.10 0.13 0.04 0.06 0.14 0.18 0.26 0.32 0.30 0.35 0.27 0.43 0.52 0.91 0.81 0.28 0.74 0.61 0.05 0.00 0.00 0.00 0.00
0.03 0.04 0.08 0.11 0.15 0.14 0.10 0.11 0.15 0.22 0.44 0.43 0.40 0.40 0.60 0.46 0.05 0.02 0.02 0.03 0.02 0.02 0.02 0.03 0.02 0.04 0.05 0.23 0.47 0.47 0.36 0.32 0.33 0.24 0.31 0.35 0.41 0.87 0.72 0.62 0.61 0.13 0.00 0.00 0.01 0.01 0.00
0.02 0.05 0.08 0.06 0.03 0.01 0.02 0.03 0.06 0.12 0.29 0.44 0.49 0.48 0.72 1.09 0.27 0.03 0.04 0.03 0.05 0.06 0.04 0.00 0.00 0.02 0.15 0.49 0.61 0.54 0.32 0.25 0.24 0.32 0.16 0.23 0.39 0.77 0.93 0.74 0.46 0.04 0.00 0.00 0.04 0.25 0.02
0.02 0.02 0.01 0.01 0.02 0.02 0.03 0.04 0.06 0.11 0.24 0.48 0.56 0.41 0.78 1.06 0.20 0.03 0.05 0.04 0.04 0.09 0.17 0.03 0.04 0.10 0.23 0.77 0.83 0.52 0.27 0.14 0.15 0.17 0.31 0.46 0.58 0.82 0.70 0.67 0.25 0.00 0.00 0.01 0.22 0.25 0.00
0.01 0.01 0.01 0.01 0.02 0.02 0.02 0.03 0.06 0.10 0.14 0.45 0.55 0.28 1.10 1.36 0.43 0.03 0.01 0.03 0.03 0.16 0.32 0.07 0.37 0.39 0.46 0.62 0.55 0.36 0.32 0.18 0.15 0.08 0.14 0.37 0.65 0.69 0.59 0.55 0.26 0.01 0.01 0.06 0.06 0.01 0.01
0.01 0.01 0.01 0.01 0.00 0.01 0.01 0.01 0.03 0.06 0.11 0.38 0.60 0.20 0.98 1.88 1.11 0.08 0.01 0.00 0.01 0.09 0.18 0.36 0.43 0.26 0.35 0.57 0.39 0.40 0.31 0.25 0.20 0.19 0.07 0.13 0.34 0.62 0.70 0.48 0.10 0.01 0.02 0.07 0.12 0.12 0.10

GFSGBSN_prec_precacc24_228.txt.gz
Total_Precipitation_Accumulation
0.04 0.03 0.02 0.02 0.02 0.02 0.02 0.02 0.02 0.01 0.01 0.00 0.00 0.01 0.01 0.01 0.01 0.00 0.01 0.01 0.01 0.02 0.01 0.01 0.02 0.02 0.03 0.02 0.00 0.00 0.00 0.00 0.00 0.00 0.00 0.00 0.00 0.00 0.00 0.00 0.00 0.00 0.00 0.00 0.00 0.00 0.00
0.02 0.01 0.01 0.02 0.03 0.04 0.03 0.02 0.02 0.02 0.01 0.01 0.01 0.01 0.01 0.01 0.01 0.01 0.01 0.02 0.02 0.03 0.03 0.04 0.05 0.06 0.06 0.03 0.00 0.00 0.00 0.00 0.00 0.00 0.00 0.00 0.00 0.00 0.00 0.00 0.00 0.00 0.00 0.00 0.00 0.00 0.00
0.01 0.01 0.01 0.02 0.02 0.03 0.03 0.03 0.03 0.02 0.02 0.02 0.01 0.02 0.01 0.01 0.01 0.01 0.01 0.01 0.03 0.07 0.10 0.12 0.13 0.09 0.04 0.00 0.00 0.00 0.00 0.00 0.00 0.00 0.00 0.00 0.00 0.00 0.00 0.00 0.00 0.00 0.00 0.00 0.00 0.00 0.00
0.01 0.00 0.01 0.01 0.01 0.02 0.03 0.03 0.03 0.03 0.03 0.03 0.02 0.02 0.02 0.02 0.01 0.01 0.00 0.00 0.01 0.01 0.10 0.26 0.32 0.18 0.07 0.00 0.00 0.00 0.00 0.00 0.00 0.00 0.00 0.00 0.00 0.00 0.00 0.00 0.00 0.00 0.00 0.00 0.00 0.00 0.00
0.01 0.00 0.01 0.01 0.02 0.03 0.04 0.04 0.04 0.05 0.04 0.04 0.05 0.04 0.03 0.02 0.02 0.01 0.01 0.01 0.00 0.01 0.08 0.26 0.40 0.29 0.06 0.00 0.00 0.00 0.00 0.00 0.00 0.00 0.00 0.00 0.00 0.00 0.00 0.00 0.00 0.00 0.00 0.00 0.00 0.00 0.00
0.01 0.00 0.01 0.01 0.02 0.03 0.03 0.04 0.05 0.07 0.07 0.06 0.07 0.07 0.06 0.06 0.04 0.03 0.01 0.00 0.01 0.01 0.08 0.41 0.43 0.19 0.02 0.00 0.00 0.00 0.00 0.00 0.00 0.00 0.00 0.00 0.00 0.00 0.00 0.00 0.00 0.00 0.00 0.00 0.00 0.00 0.00
0.00 0.00 0.02 0.02 0.04 0.05 0.07 0.09 0.13 0.12 0.10 0.09 0.11 0.10 0.09 0.09 0.06 0.08 0.02 0.01 0.02 0.03 0.07 0.11 0.14 0.05 0.00 0.00 0.00 0.00 0.00 0.00 0.00 0.00 0.00 0.00 0.00 0.00 0.00 0.00 0.00 0.00 0.00 0.00 0.00 0.00 0.00
0.01 0.01 0.03 0.04 0.04 0.06 0.07 0.13 0.15 0.14 0.10 0.11 0.15 0.15 0.10 0.06 0.03 0.07 0.06 0.06 0.09 0.26 0.19 0.02 0.00 0.00 0.00 0.00 0.00 0.00 0.00 0.01 0.00 0.00 0.01 0.01 0.00 0.00 0.00 0.00 0.00 0.00 0.00 0.00 0.00 0.00 0.00
0.02 0.02 0.02 0.02 0.04 0.08 0.14 0.16 0.17 0.14 0.10 0.14 0.17 0.18 0.14 0.12 0.07 0.03 0.07 0.16 0.11 0.14 0.27 0.03 0.01 0.01 0.00 0.00 0.00 0.00 0.00 0.01 0.01 0.00 0.01 0.01 0.00 0.00 0.00 0.00 0.00 0.00 0.00 0.00 0.00 0.00 0.00
0.02 0.01 0.01 0.03 0.11 0.14 0.14 0.13 0.15 0.09 0.07 0.11 0.13 0.22 0.18 0.13 0.20 0.19 0.21 0.16 0.09 0.29 0.14 0.03 0.02 0.02 0.00 0.00 0.00 0.00 0.00 0.00 0.03 0.02 0.03 0.07 0.00 0.00 0.00 0.00 0.00 0.00 0.00 0.00 0.00 0.00 0.00
0.03 0.02 0.05 0.10 0.13 0.10 0.07 0.05 0.08 0.09 0.09 0.09 0.08 0.08 0.13 0.22 0.21 0.64 0.46 0.11 0.23 0.38 0.23 0.04 0.00 0.00 0.00 0.01 0.00 0.00 0.00 0.00 0.01 0.03 0.18 0.05 0.00 0.00 0.00 0.00 0.00 0.00 0.00 0.00 0.00 0.00 0.00
0.04 0.06 0.12 0.15 0.08 0.07 0.07 0.07 0.07 0.08 0.09 0.13 0.09 0.04 0.05 0.08 0.25 0.23 0.11 0.13 0.34 0.47 0.34 0.10 0.01 0.01 0.02 0.01 0.00 0.00 0.00 0.00 0.00 0.03 0.14 0.02 0.00 0.00 0.00 0.00 0.00 0.00 0.00 0.00 0.00 0.00 0.00
0.03 0.05 0.12 0.12 0.14 0.20 0.16 0.14 0.10 0.08 0.11 0.10 0.08 0.05 0.04 0.03 0.22 0.19 0.04 0.09 0.20 0.38 0.12 0.06 0.02 0.02 0.01 0.01 0.00 0.00 0.01 0.01 0.03 0.08 0.13 0.04 0.01 0.01 0.01 0.01 0.01 0.01 0.03 0.05 0.06 0.03 0.00
0.05 0.04 0.03 0.05 0.10 0.12 0.10 0.12 0.09 0.07 0.08 0.10 0.11 0.10 0.04 0.04 0.06 0.14 0.11 0.18 0.23 0.04 0.03 0.08 0.05 0.06 0.08 0.04 0.01 0.01 0.03 0.05 0.05 0.02 0.05 0.03 0.01 0.01 0.00 0.01 0.01 0.01 0.04 0.06 0.08 0.02 0.00
0.06 0.06 0.04 0.03 0.03 0.02 0.09 0.14 0.08 0.09 0.13 0.13 0.12 0.09 0.12 0.08 0.15 0.23 0.22 0.24 0.10 0.01 0.00 0.00 0.04 0.18 0.26 0.19 0.07 0.06 0.16 0.20 0.17 0.10 0.21 0.18 0.04 0.00 0.00 0.00 0.04 0.05 0.10 0.02 0.07 0.03 0.07
0.06 0.04 0.02 0.01 0.02 0.03 0.03 0.06 0.16 0.17 0.15 0.17 0.14 0.16 0.07 0.10 0.24 0.29 0.31 0.13 0.02 0.00 0.01 0.04 0.12 0.14 0.16 0.20 0.28 0.26 0.31 0.35 0.23 0.08 0.15 0.28 0.22 0.01 0.00 0.00 0.01 0.06 0.06 0.16 0.27 0.49 0.30
0.05 0.04 0.03 0.02 0.02 0.01 0.01 0.00 0.10 0.25 0.16 0.21 0.19 0.19 0.11 0.19 0.27 0.26 0.17 0.02 0.01 0.00 0.01 0.06 0.08 0.18 0.13 0.19 0.44 0.50 0.41 0.26 0.28 0.08 0.08 0.16 0.34 0.16 0.01 0.01 0.01 0.04 0.08 0.15 0.34 0.39 0.23
0.04 0.04 0.04 0.03 0.03 0.01 0.01 0.00 0.01 0.14 0.27 0.29 0.28 0.22 0.30 0.33 0.20 0.12 0.03 0.01 0.01 0.00 0.00 0.02 0.07 0.08 0.15 0.19 0.27 0.40 0.46 0.35 0.28 0.20 0.21 0.23 0.32 0.18 0.02 0.00 0.01 0.05 0.09 0.20 0.60 0.53 0.47
0.06 0.04 0.04 0.05 0.05 0.04 0.05 0.05 0.08 0.13 0.24 0.31 0.28 0.17 0.22 0.45 0.29 0.11 0.04 0.02 0.02 0.01 0.00 0.00 0.03 0.08 0.10 0.12 0.45 0.27 0.16 0.20 0.30 0.44 0.45 0.31 0.49 0.36 0.16 0.10 0.06 0.27 0.33 0.28 0.33 0.50 0.43
0.05 0.03 0.04 0.06 0.05 0.06 0.06 0.09 0.11 0.14 0.24 0.36 0.25 0.19 0.17 0.25 0.16 0.12 0.14 0.10 0.03 0.00 0.01 0.00 0.00 0.00 0.05 0.13 0.20 0.29 0.15 0.11 0.05 0.16 0.26 0.50 0.36 0.33 0.21 0.12 0.11 0.10 0.09 0.16 0.36 0.50 0.50
0.05 0.04 0.05 0.07 0.06 0.04 0.04 0.07 0.11 0.20 0.36 0.43 0.29 0.13 0.10 0.11 0.09 0.04 0.08 0.10 0.06 0.04 0.06 0.05 0.07 0.06 0.09 0.11 0.17 0.17 0.08 0.04 0.02 0.05 0.22 0.54 0.52 0.20 0.09 0.01 0.01 0.02 0.00 0.01 0.14 0.20 0.34
0.03 0.04 0.05 0.05 0.02 0.01 0.01 0.06 0.12 0.21 0.44 0.41 0.23 0.10 0.10 0.09 0.09 0.13 0.14 0.09 0.04 0.02 0.08 0.05 0.13 0.07 0.09 0.10 0.11 0.25 0.24 0.16 0.15 0.10 0.33 0.60 0.66 0.23 0.17 0.01 0.02 0.08 0.02 0.02 0.02 0.01 0.04
0.02 0.04 0.04 0.02 0.01 0.01 0.02 0.07 0.09 0.18 0.40 0.22 0.09 0.08 0.28 0.22 0.12 0.15 0.15 0.14 0.09 0.11 0.09 0.06 0.09 0.17 0.13 0.06 0.10 0.09 0.20 0.30 0.30 0.24 0.26 0.52 0.68 0.52 0.43 0.04 0.14 0.32 0.10 0.01 0.02 0.00 0.02
0.04 0.02 0.02 0.05 0.06 0.07 0.08 0.07 0.06 0.19 0.36 0.23 0.10 0.16 0.34 0.25 0.08 0.06 0.05 0.07 0.06 0.08 0.10 0.07 0.10 0.13 0.03 0.05 0.10 0.09 0.13 0.24 0.25 0.29 0.22 0.35 0.36 0.60 0.50 0.15 0.56 0.46 0.04 0.00 0.00 0.00 0.00
0.02 0.02 0.05 0.08 0.09 0.09 0.08 0.09 0.12 0.19 0.39 0.32 0.27 0.31 0.51 0.41 0.04 0.02 0.02 0.03 0.02 0.02 0.02 0.03 0.01 0.03 0.04 0.22 0.43 0.27 0.09 0.18 0.29 0.18 0.17 0.23 0.29 0.60 0.48 0.36 0.40 0.08 0.00 0.00 0.01 0.00 0.00
0.01 0.03 0.04 0.03 0.02 0.01 0.02 0.03 0.05 0.09 0.23 0.29 0.27 0.33 0.62 0.98 0.24 0.03 0.04 0.03 0.05 0.06 0.04 0.00 0.00 0.01 0.09 0.39 0.49 0.39 0.13 0.12 0.16 0.30 0.13 0.15 0.19 0.39 0.56 0.51 0.35 0.03 0.00 0.00 0.03 0.21 0.01
0.01 0.01 0.00 0.01 0.01 0.02 0.02 0.02 0.03 0.04 0.13 0.28 0.25 0.24 0.53 0.84 0.16 0.03 0.04 0.04 0.04 0.09 0.17 0.03 0.03 0.07 0.18 0.64 0.63 0.36 0.16 0.11 0.13 0.15 0.30 0.40 0.48 0.62 0.42 0.48 0.18 0.00 0.00 0.01 0.22 0.24 0.00
0.01 0.01 0.00 0.00 0.01 0.01 0.01 0.01 0.02 0.04 0.08 0.30 0.32 0.18 0.77 1.08 0.38 0.03 0.01 0.02 0.03 0.16 0.31 0.07 0.34 0.31 0.35 0.47 0.31 0.20 0.17 0.10 0.12 0.07 0.14 0.37 0.64 0.65 0.51 0.50 0.24 0.01 0.01 0.06 0.06 0.01 0.01
0.01 0.01 0.01 0.01 0.00 0.00 0.00 0.00 0.01 0.02 0.06 0.30 0.48 0.15 0.79 1.59 0.96 0.07 0.01 0.00 0.01 0.09 0.18 0.35 0.42 0.20 0.26 0.44 0.28 0.27 0.23 0.19 0.15 0.17 0.07 0.14 0.34 0.62 0.70 0.47 0.10 0.01 0.02 0.07 0.12 0.12 0.10

GFSGBSN_prec_precacc24_234.txt.gz
Total_Precipitation_Accumulation
0.04 0.02 0.00 0.00 0.00 0.01 0.02 0.01 0.02 0.01 0.01 0.00 0.00 0.01 0.01 0.01 0.01 0.00 0.00 0.00 0.00 0.00 0.01 0.01 0.02 0.02 0.03 0.02 0.00 0.00 0.00 0.00 0.00 0.00 0.00 0.00 0.00 0.00 0.00 0.00 0.00 0.00 0.00 0.00 0.00 0.00 0.00
0.02 0.00 0.00 0.00 0.00 0.01 0.01 0.01 0.01 0.02 0.01 0.01 0.01 0.01 0.01 0.01 0.01 0.01 0.00 0.00 0.00 0.00 0.00 0.01 0.04 0.07 0.07 0.03 0.00 0.00 0.00 0.00 0.00 0.00 0.00 0.00 0.00 0.00 0.00 0.00 0.00 0.00 0.00 0.00 0.00 0.00 0.00
0.01 0.00 0.00 0.00 0.01 0.00 0.00 0.00 0.01 0.02 0.02 0.02 0.01 0.02 0.01 0.01 0.01 0.01 0.01 0.00 0.00 0.01 0.00 0.01 0.04 0.10 0.05 0.00 0.00 0.00 0.00 0.00 0.00 0.00 0.00 0.00 0.00 0.00 0.00 0.00 0.00 0.00 0.00 0.00 0.00 0.00 0.00
0.00 0.00 0.01 0.01 0.00 0.00 0.00 0.00 0.01 0.02 0.03 0.03 0.02 0.02 0.02 0.02 0.01 0.01 0.00 0.00 0.00 0.00 0.00 0.01 0.10 0.16 0.08 0.00 0.00 0.00 0.00 0.00 0.00 0.00 0.00 0.00 0.00 0.00 0.00 0.00 0.00 0.00 0.00 0.00 0.00 0.00 0.00
0.01 0.00 0.00 0.00 0.00 0.01 0.01 0.01 0.01 0.02 0.03 0.04 0.04 0.04 0.03 0.02 0.01 0.01 0.01 0.01 0.00 0.00 0.00 0.02 0.08 0.16 0.05 0.00 0.00 0.00 0.00 0.00 0.00 0.00 0.00 0.00 0.00 0.00 0.00 0.00 0.00 0.00 0.00 0.00 0.00 0.00 0.00
0.01 0.00 0.00 0.00 0.00 0.00 0.00 0.01 0.01 0.03 0.04 0.04 0.05 0.06 0.05 0.06 0.04 0.03 0.01 0.00 0.00 0.00 0.00 0.03 0.07 0.07 0.01 0.00 0.00 0.00 0.00 0.00 0.00 0.00 0.00 0.00 0.00 0.00 0.00 0.00 0.00 0.00 0.00 0.00 0.00 0.00 0.00
0.00 0.00 0.00 0.00 0.00 0.00 0.01 0.01 0.02 0.05 0.06 0.06 0.08 0.08 0.08 0.08 0.06 0.08 0.02 0.00 0.01 0.02 0.00 0.01 0.01 0.01 0.00 0.00 0.00 0.00 0.00 0.00 0.00 0.00 0.00 0.00 0.01 0.00 0.00 0.00 0.00 0.00 0.00 0.00 0.00 0.00 0.00
0.00 0.01 0.01 0.01 0.01 0.01 0.02 0.02 0.05 0.08 0.06 0.09 0.12 0.12 0.07 0.06 0.03 0.07 0.06 0.07 0.15 0.31 0.22 0.00 0.01 0.00 0.01 0.00 0.00 0.00 0.00 0.01 0.00 0.00 0.01 0.01 0.00 0.00 0.00 0.00 0.00 0.00 0.00 0.00 0.00 0.00 0.00
0.01 0.01 0.01 0.01 0.02 0.03 0.03 0.04 0.08 0.07 0.06 0.12 0.15 0.15 0.11 0.11 0.07 0.03 0.07 0.18 0.12 0.16 0.38 0.03 0.01 0.02 0.02 0.01 0.01 0.00 0.00 0.01 0.02 0.00 0.01 0.01 0.00 0.00 0.00 0.00 0.00 0.00 0.00 0.00 0.00 0.00 0.00
0.00 0.01 0.01 0.02 0.04 0.03 0.01 0.01 0.07 0.05 0.04 0.08 0.11 0.21 0.16 0.12 0.20 0.19 0.22 0.18 0.09 0.42 0.12 0.04 0.02 0.01 0.02 0.03 0.02 0.00 0.00 0.00 0.04 0.03 0.03 0.07 0.00 0.00 0.00 0.00 0.00 0.00 0.00 0.00 0.00 0.00 0.00
0.01 0.01 0.01 0.02 0.04 0.02 0.01 0.00 0.02 0.04 0.07 0.08 0.07 0.08 0.12 0.19 0.21 0.64 0.47 0.11 0.20 0.13 0.07 0.07 0.01 0.00 0.05 0.02 0.01 0.00 0.00 0.00 0.01 0.06 0.20 0.05 0.00 0.00 0.00 0.00 0.00 0.00 0.00 0.00 0.00 0.00 0.00
0.01 0.01 0.02 0.03 0.03 0.02 0.01 0.00 0.00 0.01 0.04 0.10 0.07 0.04 0.03 0.07 0.24 0.23 0.12 0.13 0.26 0.18 0.08 0.07 0.01 0.00 0.01 0.01 0.00 0.00 0.00 0.00 0.00 0.03 0.14 0.02 0.00 0.00 0.00 0.00 0.00 0.00 0.00 0.00 0.00 0.00 0.00
0.01 0.01 0.03 0.02 0.04 0.05 0.03 0.03 0.02 0.00 0.04 0.05 0.05 0.03 0.01 0.02 0.21 0.16 0.03 0.06 0.11 0.11 0.01 0.02 0.01 0.01 0.01 0.00 0.00 0.02 0.05 0.01 0.02 0.05 0.10 0.03 0.01 0.01 0.01 0.02 0.01 0.02 0.04 0.07 0.08 0.05 0.01
0.03 0.03 0.03 0.04 0.05 0.05 0.05 0.06 0.02 0.00 0.01 0.04 0.04 0.03 0.02 0.02 0.02 0.06 0.08 0.13 0.11 0.01 0.00 0.00 0.02 0.03 0.07 0.03 0.01 0.01 0.06 0.07 0.05 0.02 0.05 0.03 0.01 0.01 0.00 0.01 0.02 0.02 0.06 0.08 0.09 0.02 0.00
0.04 0.04 0.03 0.03 0.02 0.01 0.06 0.12 0.07 0.03 0.02 0.03 0.02 0.05 0.10 0.06 0.07 0.10 0.16 0.14 0.04 0.00 0.00 0.00 0.01 0.07 0.17 0.17 0.06 0.05 0.17 0.22 0.19 0.10 0.22 0.18 0.05 0.00 0.00 0.00 0.06 0.09 0.15 0.02 0.09 0.03 0.08
0.04 0.03 0.02 0.01 0.01 0.02 0.01 0.05 0.12 0.05 0.03 0.01 0.06 0.13 0.06 0.10 0.21 0.20 0.16 0.04 0.01 0.00 0.00 0.00 0.03 0.04 0.02 0.14 0.24 0.22 0.28 0.35 0.23 0.08 0.15 0.28 0.22 0.01 0.00 0.00 0.02 0.08 0.10 0.24 0.39 0.56 0.32
0.03 0.02 0.01 0.01 0.01 0.00 0.00 0.00 0.08 0.15 0.05 0.01 0.12 0.13 0.10 0.19 0.24 0.19 0.09 0.02 0.01 0.00 0.01 0.00 0.00 0.02 0.04 0.08 0.25 0.42 0.39 0.26 0.28 0.08 0.08 0.16 0.33 0.16 0.01 0.01 0.02 0.07 0.16 0.39 0.59 0.57 0.31
0.03 0.02 0.01 0.01 0.00 0.00 0.00 0.00 0.00 0.11 0.08 0.04 0.16 0.12 0.29 0.32 0.14 0.07 0.02 0.01 0.01 0.00 0.00 0.00 0.00 0.00 0.01 0.02 0.06 0.13 0.26 0.32 0.28 0.20 0.21 0.23 0.30 0.17 0.02 0.00 0.01 0.09 0.16 0.26 0.82 0.86 0.93
0.02 0.01 0.00 0.01 0.01 0.01 0.02 0.03 0.05 0.08 0.06 0.15 0.13 0.09 0.20 0.39 0.22 0.08 0.03 0.02 0.02 0.01 0.00 0.00 0.00 0.00 0.00 0.01 0.12 0.07 0.04 0.11 0.28 0.41 0.43 0.29 0.42 0.29 0.09 0.06 0.01 0.28 0.43 0.35 0.40 0.60 0.51
0.01 0.01 0.01 0.01 0.01 0.01 0.01 0.03 0.06 0.08 0.11 0.16 0.12 0.07 0.07 0.11 0.11 0.09 0.12 0.09 0.03 0.00 0.01 0.00 0.00 0.00 0.00 0.00 0.04 0.08 0.00 0.00 0.03 0.12 0.25 0.48 0.32 0.26 0.15 0.08 0.07 0.09 0.08 0.17 0.39 0.53 0.53
0.01 0.01 0.01 0.01 0.03 0.01 0.01 0.02 0.07 0.14 0.15 0.16 0.13 0.05 0.06 0.05 0.03 0.02 0.06 0.08 0.05 0.03 0.05 0.04 0.06 0.06 0.08 0.06 0.01 0.01 0.00 0.00 0.00 0.02 0.18 0.49 0.36 0.12 0.08 0.01 0.00 0.02 0.00 0.00 0.10 0.20 0.34
0.02 0.02 0.01 0.01 0.00 0.00 0.00 0.03 0.06 0.16 0.17 0.18 0.07 0.03 0.07 0.08 0.08 0.11 0.11 0.06 0.03 0.02 0.07 0.04 0.11 0.06 0.07 0.07 0.06 0.04 0.04 0.04 0.05 0.05 0.25 0.43 0.30 0.16 0.15 0.01 0.02 0.07 0.02 0.01 0.00 0.00 0.02
0.01 0.02 0.02 0.02 0.01 0.00 0.00 0.03 0.03 0.13 0.16 0.12 0.04 0.06 0.20 0.12 0.07 0.10 0.13 0.13 0.08 0.11 0.09 0.06 0.09 0.15 0.10 0.04 0.09 0.06 0.05 0.03 0.04 0.09 0.15 0.37 0.36 0.24 0.21 0.03 0.13 0.24 0.03 0.01 0.02 0.00 0.01
0.01 0.01 0.01 0.02 0.02 0.03 0.03 0.03 0.04 0.15 0.17 0.17 0.09 0.14 0.25 0.13 0.05 0.04 0.04 0.06 0.06 0.08 0.10 0.07 0.09 0.13 0.03 0.04 0.05 0.02 0.00 0.00 0.00 0.01 0.06 0.14 0.20 0.36 0.24 0.09 0.33 0.07 0.00 0.00 0.00 0.00 0.00
0.01 0.01 0.01 0.01 0.01 0.01 0.02 0.02 0.04 0.11 0.22 0.20 0.25 0.31 0.45 0.33 0.03 0.02 0.02 0.03 0.02 0.02 0.02 0.03 0.01 0.03 0.03 0.17 0.30 0.12 0.02 0.01 0.00 0.00 0.00 0.01 0.08 0.27 0.21 0.12 0.09 0.01 0.00 0.00 0.00 0.00 0.00
0.01 0.01 0.01 0.01 0.01 0.01 0.01 0.02 0.02 0.04 0.13 0.14 0.20 0.31 0.56 0.81 0.17 0.02 0.04 0.02 0.05 0.04 0.02 0.00 0.00 0.01 0.06 0.22 0.26 0.22 0.04 0.02 0.01 0.01 0.01 0.02 0.04 0.24 0.21 0.21 0.10 0.01 0.00 0.00 0.01 0.06 0.01
0.01 0.01 0.01 0.01 0.00 0.01 0.01 0.01 0.01 0.01 0.07 0.14 0.11 0.19 0.34 0.50 0.09 0.02 0.04 0.04 0.04 0.08 0.13 0.02 0.02 0.07 0.15 0.51 0.42 0.18 0.07 0.02 0.03 0.01 0.02 0.07 0.13 0.33 0.21 0.24 0.06 0.00 0.00 0.00 0.08 0.11 0.00
0.02 0.02 0.01 0.00 0.00 0.01 0.01 0.01 0.02 0.02 0.03 0.11 0.06 0.11 0.31 0.38 0.15 0.02 0.01 0.02 0.02 0.09 0.22 0.05 0.28 0.25 0.28 0.40 0.25 0.13 0.09 0.03 0.04 0.01 0.02 0.08 0.20 0.24 0.22 0.37 0.18 0.01 0.01 0.06 0.05 0.01 0.01
0.03 0.02 0.02 0.02 0.01 0.01 0.00 0.00 0.01 0.01 0.02 0.11 0.12 0.06 0.31 0.62 0.40 0.03 0.00 0.00 0.01 0.06 0.15 0.30 0.36 0.18 0.25 0.37 0.26 0.28 0.23 0.17 0.10 0.10 0.03 0.05 0.10 0.21 0.28 0.22 0.07 0.01 0.01 0.06 0.11 0.12 0.10

GFSGBSN_prec_precacc24_237.txt.gz
Total_Precipitation_Accumulation
0.03 0.01 0.00 0.00 0.00 0.00 0.01 0.00 0.00 0.00 0.01 0.00 0.00 0.01 0.01 0.01 0.01 0.00 0.00 0.00 0.00 0.00 0.00 0.01 0.02 0.02 0.03 0.02 0.00 0.00 0.00 0.00 0.00 0.00 0.00 0.00 0.00 0.00 0.00 0.00 0.00 0.00 0.00 0.00 0.00 0.00 0.00
0.01 0.00 0.00 0.00 0.00 0.00 0.00 0.00 0.00 0.00 0.00 0.01 0.01 0.01 0.01 0.01 0.01 0.01 0.00 0.00 0.00 0.00 0.00 0.00 0.01 0.06 0.07 0.03 0.00 0.00 0.00 0.00 0.00 0.00 0.00 0.00 0.00 0.00 0.00 0.00 0.00 0.00 0.00 0.00 0.00 0.00 0.00
0.00 0.00 0.00 0.00 0.01 0.00 0.00 0.00 0.00 0.00 0.00 0.01 0.01 0.02 0.01 0.01 0.01 0.01 0.01 0.00 0.00 0.01 0.00 0.00 0.01 0.07 0.06 0.00 0.00 0.00 0.00 0.00 0.00 0.00 0.00 0.00 0.00 0.00 0.00 0.00 0.00 0.00 0.00 0.00 0.00 0.00 0.00
0.00 0.00 0.01 0.01 0.00 0.00 0.00 0.00 0.00 0.00 0.00 0.01 0.01 0.02 0.02 0.02 0.01 0.01 0.00 0.00 0.00 0.00 0.00 0.00 0.02 0.08 0.06 0.00 0.00 0.00 0.00 0.00 0.00 0.00 0.00 0.00 0.00 0.00 0.00 0.00 0.00 0.00 0.00 0.00 0.00 0.00 0.00
0.01 0.01 0.01 0.00 0.00 0.01 0.00 0.00 0.00 0.00 0.00 0.01 0.02 0.03 0.03 0.02 0.01 0.01 0.01 0.01 0.00 0.00 0.00 0.02 0.03 0.05 0.02 0.00 0.00 0.00 0.00 0.00 0.00 0.00 0.00 0.00 0.00 0.00 0.00 0.00 0.00 0.00 0.00 0.00 0.00 0.00 0.00
0.01 0.00 0.00 0.00 0.00 0.00 0.00 0.01 0.00 0.00 0.00 0.01 0.02 0.03 0.04 0.05 0.04 0.03 0.01 0.00 0.00 0.00 0.00 0.03 0.05 0.05 0.01 0.00 0.00 0.00 0.00 0.00 0.00 0.00 0.00 0.00 0.00 0.00 0.00 0.00 0.00 0.00 0.00 0.00 0.00 0.00 0.00
0.00 0.00 0.00 0.00 0.00 0.00 0.01 0.01 0.00 0.01 0.01 0.02 0.05 0.06 0.06 0.07 0.06 0.08 0.02 0.00 0.01 0.02 0.00 0.01 0.02 0.02 0.00 0.00 0.00 0.00 0.00 0.00 0.00 0.00 0.00 0.00 0.01 0.01 0.00 0.00 0.00 0.00 0.00 0.00 0.00 0.00 0.00
0.00 0.00 0.01 0.01 0.01 0.01 0.01 0.01 0.01 0.03 0.02 0.06 0.09 0.09 0.06 0.04 0.03 0.07 0.06 0.07 0.15 0.31 0.23 0.00 0.01 0.01 0.01 0.00 0.00 0.00 0.00 0.01 0.00 0.00 0.01 0.01 0.02 0.00 0.00 0.00 0.00 0.00 0.00 0.00 0.00 0.00 0.00
0.01 0.00 0.01 0.01 0.02 0.02 0.02 0.02 0.02 0.02 0.02 0.06 0.10 0.11 0.09 0.10 0.07 0.03 0.07 0.18 0.12 0.16 0.39 0.03 0.01 0.02 0.02 0.01 0.03 0.02 0.00 0.01 0.03 0.01 0.01 0.01 0.00 0.00 0.00 0.00 0.00 0.00 0.00 0.00 0.00 0.00 0.00
0.00 0.01 0.01 0.02 0.02 0.02 0.01 0.00 0.02 0.02 0.02 0.03 0.06 0.16 0.14 0.12 0.19 0.19 0.21 0.18 0.10 0.42 0.15 0.05 0.02 0.01 0.02 0.03 0.05 0.00 0.00 0.00 0.04 0.04 0.04 0.07 0.00 0.00 0.00 0.00 0.00 0.00 0.00 0.00 0.00 0.00 0.00
0.01 0.01 0.01 0.02 0.02 0.01 0.01 0.00 0.00 0.00 0.03 0.04 0.02 0.06 0.11 0.19 0.19 0.62 0.43 0.11 0.20 0.12 0.10 0.07 0.01 0.00 0.05 0.02 0.02 0.02 0.00 0.00 0.01 0.08 0.25 0.05 0.00 0.00 0.00 0.00 0.00 0.00 0.00 0.00 0.00 0.00 0.00
0.00 0.01 0.01 0.02 0.02 0.01 0.01 0.00 0.00 0.01 0.02 0.05 0.03 0.02 0.03 0.06 0.24 0.23 0.12 0.13 0.24 0.14 0.08 0.07 0.01 0.00 0.01 0.01 0.01 0.01 0.03 0.00 0.00 0.03 0.16 0.03 0.00 0.00 0.00 0.00 0.00 0.00 0.00 0.00 0.00 0.00 0.01
0.01 0.01 0.02 0.01 0.02 0.01 0.02 0.03 0.02 0.00 0.02 0.02 0.03 0.01 0.01 0.02 0.20 0.16 0.02 0.03 0.08 0.07 0.01 0.02 0.01 0.01 0.00 0.00 0.00 0.03 0.09 0.03 0.03 0.06 0.08 0.04 0.01 0.01 0.01 0.02 0.01 0.02 0.07 0.13 0.15 0.08 0.01
0.03 0.02 0.02 0.02 0.02 0.01 0.02 0.04 0.02 0.00 0.00 0.01 0.02 0.01 0.01 0.00 0.01 0.05 0.04 0.07 0.07 0.01 0.00 0.00 0.00 0.01 0.05 0.02 0.00 0.00 0.07 0.08 0.04 0.02 0.08 0.07 0.04 0.01 0.00 0.01 0.02 0.02 0.09 0.11 0.09 0.02 0.00
0.03 0.04 0.02 0.02 0.01 0.00 0.00 0.04 0.02 0.00 0.00 0.00 0.00 0.02 0.05 0.03 0.05 0.07 0.10 0.08 0.02 0.00 0.00 0.00 0.00 0.02 0.08 0.12 0.04 0.02 0.16 0.23 0.18 0.09 0.24 0.21 0.11 0.01 0.00 0.00 0.07 0.10 0.16 0.03 0.09 0.03 0.07
0.03 0.03 0.02 0.01 0.00 0.00 0.00 0.01 0.04 0.02 0.01 0.00 0.03 0.07 0.04 0.08 0.13 0.13 0.10 0.02 0.01 0.00 0.00 0.00 0.01 0.01 0.00 0.09 0.16 0.15 0.22 0.34 0.24 0.08 0.15 0.28 0.22 0.02 0.00 0.00 0.04 0.11 0.11 0.25 0.42 0.56 0.31
0.02 0.02 0.01 0.01 0.01 0.00 0.00 0.00 0.04 0.06 0.01 0.00 0.06 0.08 0.06 0.16 0.18 0.12 0.06 0.01 0.00 0.00 0.01 0.00 0.00 0.00 0.00 0.01 0.11 0.23 0.28 0.24 0.28 0.08 0.08 0.15 0.32 0.16 0.01 0.03 0.09 0.15 0.25 0.50 0.64 0.56 0.31
0.01 0.01 0.00 0.00 0.00 0.00 0.00 0.00 0.00 0.06 0.01 0.01 0.09 0.06 0.21 0.28 0.11 0.05 0.01 0.00 0.00 0.00 0.00 0.00 0.00 0.00 0.00 0.01 0.02 0.04 0.08 0.19 0.19 0.19 0.20 0.23 0.27 0.16 0.02 0.00 0.01 0.10 0.22 0.37 0.99 0.99 0.99
0.01 0.01 0.00 0.00 0.01 0.01 0.01 0.01 0.02 0.04 0.02 0.08 0.08 0.04 0.16 0.31 0.19 0.06 0.01 0.01 0.01 0.00 0.00 0.00 0.00 0.00 0.00 0.01 0.02 0.03 0.03 0.05 0.14 0.20 0.29 0.18 0.35 0.24 0.09 0.07 0.02 0.27 0.43 0.36 0.42 0.66 0.61
0.01 0.01 0.01 0.01 0.00 0.00 0.00 0.02 0.04 0.05 0.05 0.07 0.08 0.03 0.04 0.05 0.08 0.06 0.07 0.05 0.02 0.00 0.01 0.00 0.00 0.00 0.01 0.01 0.01 0.03 0.01 0.00 0.01 0.04 0.11 0.24 0.16 0.17 0.15 0.13 0.09 0.08 0.08 0.17 0.37 0.49 0.53
0.01 0.01 0.01 0.01 0.00 0.01 0.01 0.01 0.04 0.08 0.07 0.07 0.07 0.02 0.02 0.02 0.01 0.01 0.03 0.03 0.02 0.02 0.04 0.02 0.04 0.05 0.08 0.06 0.01 0.00 0.00 0.00 0.00 0.01 0.15 0.26 0.16 0.03 0.03 0.00 0.00 0.02 0.00 0.00 0.08 0.19 0.33
0.02 0.02 0.01 0.01 0.00 0.00 0.00 0.01 0.03 0.09 0.08 0.08 0.03 0.01 0.04 0.05 0.05 0.07 0.07 0.04 0.01 0.01 0.04 0.03 0.09 0.04 0.05 0.07 0.07 0.05 0.04 0.04 0.05 0.05 0.22 0.30 0.21 0.09 0.08 0.00 0.01 0.06 0.01 0.00 0.00 0.00 0.02
0.02 0.02 0.02 0.02 0.01 0.00 0.00 0.01 0.02 0.07 0.07 0.06 0.02 0.03 0.13 0.09 0.04 0.06 0.08 0.10 0.07 0.09 0.07 0.06 0.08 0.13 0.09 0.04 0.06 0.03 0.03 0.02 0.04 0.07 0.11 0.29 0.26 0.18 0.14 0.01 0.08 0.16 0.02 0.00 0.00 0.00 0.01
0.01 0.01 0.01 0.02 0.02 0.03 0.02 0.02 0.02 0.10 0.07 0.09 0.07 0.11 0.20 0.10 0.03 0.02 0.02 0.04 0.03 0.05 0.08 0.05 0.07 0.11 0.03 0.04 0.04 0.01 0.00 0.00 0.00 0.01 0.04 0.07 0.11 0.24 0.15 0.07 0.23 0.03 0.00 0.00 0.00 0.00 0.00
0.01 0.01 0.01 0.01 0.02 0.02 0.02 0.01 0.02 0.06 0.14 0.12 0.16 0.25 0.41 0.31 0.02 0.01 0.01 0.02 0.01 0.01 0.01 0.02 0.01 0.02 0.02 0.12 0.24 0.10 0.01 0.00 0.00 0.00 0.00 0.01 0.07 0.19 0.13 0.07 0.05 0.00 0.00 0.00 0.00 0.00 0.00
0.01 0.01 0.01 0.01 0.01 0.01 0.02 0.02 0.03 0.03 0.10 0.08 0.12 0.25 0.52 0.74 0.16 0.02 0.03 0.02 0.03 0.02 0.01 0.00 0.00 0.00 0.02 0.09 0.18 0.16 0.03 0.01 0.00 0.00 0.01 0.03 0.04 0.22 0.19 0.17 0.05 0.00 0.00 0.00 0.00 0.03 0.01
0.02 0.01 0.01 0.01 0.00 0.01 0.01 0.01 0.01 0.01 0.05 0.10 0.06 0.15 0.29 0.37 0.06 0.02 0.03 0.03 0.02 0.05 0.07 0.01 0.01 0.05 0.09 0.30 0.31 0.14 0.05 0.01 0.02 0.01 0.01 0.07 0.12 0.28 0.19 0.24 0.05 0.00 0.00 0.00 0.03 0.07 0.00
0.03 0.02 0.01 0.01 0.01 0.01 0.01 0.01 0.02 0.02 0.03 0.08 0.05 0.09 0.23 0.20 0.08 0.01 0.01 0.02 0.01 0.04 0.10 0.03 0.18 0.15 0.17 0.26 0.17 0.07 0.07 0.03 0.03 0.01 0.01 0.05 0.16 0.19 0.21 0.30 0.15 0.00 0.00 0.02 0.04 0.01 0.01
0.04 0.03 0.03 0.02 0.02 0.01 0.00 0.00 0.01 0.01 0.02 0.08 0.07 0.04 0.21 0.38 0.21 0.02 0.01 0.00 0.01 0.03 0.08 0.19 0.24 0.12 0.22 0.36 0.25 0.28 0.22 0.17 0.10 0.08 0.01 0.03 0.04 0.10 0.15 0.10 0.01 0.00 0.00 0.02 0.06 0.09 0.08